| time (UTC) | temp F | wind direction | speed MPH | gust MPH | rain 1hr in | rain 24hr in | rain mn in | humidity % | barometer mb |
| 20260902191458 | 97 | 77 | 0.0 | 5.0 | 0.00 | 0.00 | 0.00 | 57 | 1012.6 |
| 20260902191400 | 97 | 77 | 2.0 | 5.0 | 0.00 | 0.00 | 0.00 | 58 | 1012.6 |
| 20260902191259 | 97 | 77 | 3.0 | 5.0 | 0.00 | 0.00 | 0.00 | 58 | 1012.6 |
| 20260902191158 | 97 | 166 | 0.0 | 4.0 | 0.00 | 0.00 | 0.00 | 58 | 1012.7 |
| 20260902191058 | 97 | 220 | 1.0 | 4.0 | 0.00 | 0.00 | 0.00 | 58 | 1012.6 |
| 20260902191001 | 97 | 220 | 1.0 | 4.0 | 0.00 | 0.00 | 0.00 | 58 | 1012.6 |
| 20260902190859 | 97 | 85 | 0.0 | 4.0 | 0.00 | 0.00 | 0.00 | 58 | 1012.6 |
| 20260902190800 | 97 | 85 | 1.0 | 4.0 | 0.00 | 0.00 | 0.00 | 57 | 1012.6 |
| 20260902190658 | 97 | 85 | 2.0 | 4.0 | 0.00 | 0.00 | 0.00 | 57 | 1012.6 |
| 20260902190558 | 97 | 82 | 2.0 | 4.0 | 0.00 | 0.00 | 0.00 | 58 | 1012.6 |
| 20260902190458 | 97 | 82 | 0.0 | 5.0 | 0.00 | 0.00 | 0.00 | 57 | 1012.6 |
| 20260902190400 | 97 | 82 | 0.0 | 5.0 | 0.00 | 0.00 | 0.00 | 57 | 1012.5 |
| 20260902190258 | 98 | 77 | 0.0 | 5.0 | 0.00 | 0.00 | 0.00 | 58 | 1012.6 |
| 20260902190158 | 98 | 77 | 1.0 | 5.0 | 0.00 | 0.00 | 0.00 | 57 | 1012.7 |
| 20260902190057 | 98 | 77 | 0.0 | 5.0 | 0.00 | 0.00 | 0.00 | 58 | 1012.6 |
| 20260902190006 | 98 | 77 | 0.0 | 5.0 | 0.00 | 0.00 | 0.00 | 58 | 1012.6 |
| 20260902185859 | 98 | 77 | 1.0 | 5.0 | 0.00 | 0.00 | 0.00 | 58 | 1012.7 |
| 20260902185759 | 98 | 77 | 2.0 | 5.0 | 0.00 | 0.00 | 0.00 | 58 | 1012.7 |
| 20260902185657 | 97 | 74 | 1.0 | 5.0 | 0.00 | 0.00 | 0.00 | 58 | 1012.7 |
| 20260902185600 | 97 | 119 | 1.0 | 4.0 | 0.00 | 0.00 | 0.00 | 58 | 1012.7 |
| 20260902185500 | 97 | 117 | 0.0 | 4.0 | 0.00 | 0.00 | 0.00 | 58 | 1012.7 |
| 20260902185357 | 97 | 117 | 0.0 | 4.0 | 0.00 | 0.00 | 0.00 | 58 | 1012.8 |
| 20260902185257 | 97 | 117 | 2.0 | 4.0 | 0.00 | 0.00 | 0.00 | 59 | 1012.7 |
| 20260902185200 | 97 | 358 | 2.0 | 4.0 | 0.00 | 0.00 | 0.00 | 59 | 1012.8 |
| 20260902185059 | 97 | 356 | 0.0 | 4.0 | 0.00 | 0.00 | 0.00 | 59 | 1012.7 |
| 20260902184800 | 96 | 358 | 0.0 | 4.0 | 0.00 | 0.00 | 0.00 | 60 | 1012.8 |
| 20260902184600 | 96 | 353 | 1.0 | 4.0 | 0.00 | 0.00 | 0.00 | 60 | 1012.8 |
| 20260902184458 | 96 | 353 | 0.0 | 4.0 | 0.00 | 0.00 | 0.00 | 59 | 1012.8 |
| 20260902184257 | 96 | 354 | 1.0 | 4.0 | 0.00 | 0.00 | 0.00 | 60 | 1012.9 |
| 20260902184158 | 95 | 354 | 0.0 | 4.0 | 0.00 | 0.00 | 0.00 | 60 | 1012.9 |
| 20260902184057 | 95 | 14 | 2.0 | 4.0 | 0.00 | 0.00 | 0.00 | 60 | 1013.0 |
| 20260902184002 | 95 | 17 | 1.0 | 5.0 | 0.00 | 0.00 | 0.00 | 60 | 1013.0 |
| 20260902183859 | 95 | 17 | 2.0 | 5.0 | 0.00 | 0.00 | 0.00 | 60 | 1013.0 |
| 20260902183758 | 95 | 53 | 1.0 | 5.0 | 0.00 | 0.00 | 0.00 | 60 | 1013.0 |
| 20260902183659 | 95 | 53 | 1.0 | 5.0 | 0.00 | 0.00 | 0.00 | 61 | 1013.1 |
| 20260902183600 | 95 | 53 | 1.0 | 5.0 | 0.00 | 0.00 | 0.00 | 60 | 1013.1 |
| 20260902183500 | 95 | 53 | 0.0 | 5.0 | 0.00 | 0.00 | 0.00 | 61 | 1013.2 |
| 20260902183257 | 95 | 306 | 1.0 | 5.0 | 0.00 | 0.00 | 0.00 | 61 | 1013.1 |
| 20260902183158 | 95 | 306 | 0.0 | 5.0 | 0.00 | 0.00 | 0.00 | 60 | 1013.1 |
| 20260902183100 | 95 | 307 | 2.0 | 4.0 | 0.00 | 0.00 | 0.00 | 60 | 1013.2 |
| 20260902183001 | 95 | 308 | 0.0 | 4.0 | 0.00 | 0.00 | 0.00 | 61 | 1013.2 |
| 20260902182857 | 95 | 308 | 0.0 | 4.0 | 0.00 | 0.00 | 0.00 | 60 | 1013.2 |
| 20260902182758 | 95 | 308 | 0.0 | 4.0 | 0.00 | 0.00 | 0.00 | 61 | 1013.3 |
| 20260902182700 | 95 | 310 | 0.0 | 2.0 | 0.00 | 0.00 | 0.00 | 61 | 1013.2 |
| 20260902182259 | 94 | 309 | 0.0 | 4.0 | 0.00 | 0.00 | 0.00 | 61 | 1013.4 |
| 20260902182200 | 94 | 309 | 0.0 | 4.0 | 0.00 | 0.00 | 0.00 | 61 | 1013.4 |
| 20260902181959 | 94 | 309 | 0.0 | 4.0 | 0.00 | 0.00 | 0.00 | 61 | 1013.4 |
| 20260902181859 | 94 | 309 | 0.0 | 4.0 | 0.00 | 0.00 | 0.00 | 61 | 1013.4 |
| 20260902181801 | 94 | 309 | 0.0 | 4.0 | 0.00 | 0.00 | 0.00 | 61 | 1013.5 |
| 20260902181657 | 94 | 312 | 0.0 | 4.0 | 0.00 | 0.00 | 0.00 | 61 | 1013.5 |
| 20260902181558 | 94 | 312 | 0.0 | 4.0 | 0.00 | 0.00 | 0.00 | 61 | 1013.5 |
| 20260902181457 | 94 | 312 | 0.0 | 4.0 | 0.00 | 0.00 | 0.00 | 61 | 1013.5 |
| 20260902181400 | 94 | 312 | 0.0 | 4.0 | 0.00 | 0.00 | 0.00 | 61 | 1013.5 |
| 20260902181258 | 94 | 262 | 0.0 | 3.0 | 0.00 | 0.00 | 0.00 | 61 | 1013.5 |
| 20260902181200 | 94 | 262 | 0.0 | 3.0 | 0.00 | 0.00 | 0.00 | 61 | 1013.5 |
| 20260902181100 | 94 | 262 | 0.0 | 3.0 | 0.00 | 0.00 | 0.00 | 61 | 1013.6 |
| 20260902181001 | 94 | 262 | 0.0 | 3.0 | 0.00 | 0.00 | 0.00 | 61 | 1013.6 |
| 20260902180857 | 94 | 262 | 0.0 | 3.0 | 0.00 | 0.00 | 0.00 | 61 | 1013.6 |
| 20260902180758 | 94 | 262 | 0.0 | 3.0 | 0.00 | 0.00 | 0.00 | 61 | 1013.6 |
| 20260902180600 | 94 | 262 | 0.0 | 4.0 | 0.00 | 0.00 | 0.00 | 62 | 1013.6 |
| 20260902180457 | 94 | 262 | 1.0 | 5.0 | 0.00 | 0.00 | 0.00 | 62 | 1013.6 |
| 20260902180358 | 94 | 250 | 0.0 | 5.0 | 0.00 | 0.00 | 0.00 | 62 | 1013.6 |
| 20260902180259 | 94 | 250 | 0.0 | 5.0 | 0.00 | 0.00 | 0.00 | 61 | 1013.6 |
| 20260902180200 | 94 | 250 | 1.0 | 5.0 | 0.00 | 0.00 | 0.00 | 62 | 1013.6 |
| 20260902180059 | 94 | 250 | 1.0 | 5.0 | 0.00 | 0.00 | 0.00 | 61 | 1013.7 |
| 20260902175859 | 94 | 256 | 3.0 | 5.0 | 0.00 | 0.00 | 0.00 | 61 | 1013.8 |
| 20260902175800 | 94 | 304 | 1.0 | 5.0 | 0.00 | 0.00 | 0.00 | 61 | 1013.7 |
| 20260902175700 | 94 | 304 | 2.0 | 5.0 | 0.00 | 0.00 | 0.00 | 61 | 1013.8 |
| 20260902175558 | 94 | 304 | 3.0 | 6.0 | 0.00 | 0.00 | 0.00 | 61 | 1013.8 |
| 20260902175500 | 94 | 306 | 0.0 | 6.0 | 0.00 | 0.00 | 0.00 | 61 | 1013.8 |
| 20260902175400 | 94 | 306 | 0.0 | 6.0 | 0.00 | 0.00 | 0.00 | 62 | 1013.8 |
| 20260902175257 | 94 | 306 | 0.0 | 6.0 | 0.00 | 0.00 | 0.00 | 61 | 1013.9 |
| 20260902175158 | 94 | 306 | 1.0 | 6.0 | 0.00 | 0.00 | 0.00 | 61 | 1013.9 |
| 20260902175059 | 94 | 306 | 2.0 | 6.0 | 0.00 | 0.00 | 0.00 | 61 | 1013.9 |
| 20260902175001 | 94 | 341 | 0.0 | 6.0 | 0.00 | 0.00 | 0.00 | 61 | 1013.9 |
| 20260902174859 | 94 | 312 | 2.0 | 5.0 | 0.00 | 0.00 | 0.00 | 61 | 1013.9 |
| 20260902174757 | 94 | 307 | 0.0 | 5.0 | 0.00 | 0.00 | 0.00 | 61 | 1014.0 |
| 20260902174657 | 94 | 308 | 0.0 | 5.0 | 0.00 | 0.00 | 0.00 | 62 | 1014.0 |
| 20260902174358 | 94 | 307 | 0.0 | 5.0 | 0.00 | 0.00 | 0.00 | 61 | 1014.0 |
| 20260902174200 | 94 | 269 | 1.0 | 4.0 | 0.00 | 0.00 | 0.00 | 61 | 1014.1 |
| 20260902174059 | 94 | 257 | 1.0 | 5.0 | 0.00 | 0.00 | 0.00 | 61 | 1014.1 |
| 20260902173959 | 94 | 348 | 0.0 | 5.0 | 0.00 | 0.00 | 0.00 | 61 | 1014.1 |
| 20260902173857 | 94 | 350 | 2.0 | 5.0 | 0.00 | 0.00 | 0.00 | 61 | 1014.1 |
| 20260902173802 | 94 | 1 | 0.0 | 5.0 | 0.00 | 0.00 | 0.00 | 61 | 1014.1 |
| 20260902173659 | 94 | 359 | 0.0 | 7.0 | 0.00 | 0.00 | 0.00 | 61 | 1014.0 |
| 20260902173558 | 94 | 359 | 1.0 | 7.0 | 0.00 | 0.00 | 0.00 | 61 | 1014.1 |
| 20260902173500 | 94 | 360 | 1.0 | 7.0 | 0.00 | 0.00 | 0.00 | 61 | 1014.1 |
| 20260902173259 | 94 | 116 | 1.0 | 7.0 | 0.00 | 0.00 | 0.00 | 61 | 1014.1 |
| 20260902173159 | 94 | 110 | 2.0 | 7.0 | 0.00 | 0.00 | 0.00 | 61 | 1014.2 |
| 20260902173057 | 94 | 217 | 0.0 | 7.0 | 0.00 | 0.00 | 0.00 | 61 | 1014.2 |
| 20260902173001 | 94 | 250 | 0.0 | 7.0 | 0.00 | 0.00 | 0.00 | 61 | 1014.2 |
| 20260902172857 | 94 | 164 | 4.0 | 5.0 | 0.00 | 0.00 | 0.00 | 61 | 1014.2 |
| 20260902172758 | 94 | 106 | 1.0 | 5.0 | 0.00 | 0.00 | 0.00 | 61 | 1014.3 |
| 20260902172658 | 94 | 106 | 1.0 | 5.0 | 0.00 | 0.00 | 0.00 | 61 | 1014.3 |
| 20260902172600 | 94 | 106 | 1.0 | 5.0 | 0.00 | 0.00 | 0.00 | 61 | 1014.3 |
| 20260902172358 | 93 | 315 | 0.0 | 4.0 | 0.00 | 0.00 | 0.00 | 61 | 1014.3 |
| 20260902172257 | 93 | 312 | 1.0 | 4.0 | 0.00 | 0.00 | 0.00 | 61 | 1014.3 |
| 20260902172158 | 93 | 308 | 3.0 | 4.0 | 0.00 | 0.00 | 0.00 | 61 | 1014.4 |
| 20260902172100 | 93 | 308 | 0.0 | 4.0 | 0.00 | 0.00 | 0.00 | 61 | 1014.4 |
| 20260902172001 | 93 | 308 | 0.0 | 4.0 | 0.00 | 0.00 | 0.00 | 61 | 1014.4 |
| 20260902171857 | 93 | 308 | 0.0 | 4.0 | 0.00 | 0.00 | 0.00 | 61 | 1014.4 |
| 20260902171800 | 93 | 308 | 3.0 | 4.0 | 0.00 | 0.00 | 0.00 | 61 | 1014.4 |
| 20260902171659 | 93 | 323 | 0.0 | 4.0 | 0.00 | 0.00 | 0.00 | 61 | 1014.4 |
| 20260902171557 | 92 | 323 | 4.0 | 4.0 | 0.00 | 0.00 | 0.00 | 61 | 1014.4 |
| 20260902171458 | 92 | 33 | 0.0 | 3.0 | 0.00 | 0.00 | 0.00 | 61 | 1014.5 |
| 20260902171358 | 92 | 35 | 2.0 | 5.0 | 0.00 | 0.00 | 0.00 | 61 | 1014.5 |
| 20260902171158 | 92 | 127 | 1.0 | 5.0 | 0.00 | 0.00 | 0.00 | 61 | 1014.5 |
| 20260902171057 | 92 | 121 | 0.0 | 5.0 | 0.00 | 0.00 | 0.00 | 60 | 1014.5 |
| 20260902170959 | 91 | 121 | 1.0 | 5.0 | 0.00 | 0.00 | 0.00 | 60 | 1014.5 |
| 20260902170859 | 91 | 97 | 1.0 | 5.0 | 0.00 | 0.00 | 0.00 | 60 | 1014.5 |
| 20260902170800 | 91 | 97 | 1.0 | 5.0 | 0.00 | 0.00 | 0.00 | 60 | 1014.5 |
| 20260902170658 | 91 | 97 | 0.0 | 5.0 | 0.00 | 0.00 | 0.00 | 60 | 1014.6 |
| 20260902170500 | 91 | 69 | 0.0 | 4.0 | 0.00 | 0.00 | 0.00 | 60 | 1014.6 |
| 20260902170400 | 91 | 69 | 0.0 | 4.0 | 0.00 | 0.00 | 0.00 | 60 | 1014.6 |
| 20260902170257 | 91 | 69 | 0.0 | 4.0 | 0.00 | 0.00 | 0.00 | 60 | 1014.7 |
| 20260902170158 | 91 | 4 | 1.0 | 4.0 | 0.00 | 0.00 | 0.00 | 60 | 1014.6 |
| 20260902170059 | 91 | 5 | 2.0 | 4.0 | 0.00 | 0.00 | 0.00 | 59 | 1014.7 |
| 20260902170005 | 91 | 349 | 1.0 | 8.0 | 0.00 | 0.00 | 0.00 | 59 | 1014.7 |
| 20260902165857 | 91 | 29 | 0.0 | 8.0 | 0.00 | 0.00 | 0.00 | 59 | 1014.6 |
| 20260902165758 | 91 | 14 | 1.0 | 8.0 | 0.00 | 0.00 | 0.00 | 59 | 1014.7 |
| 20260902165700 | 91 | 344 | 1.0 | 8.0 | 0.00 | 0.00 | 0.00 | 59 | 1014.7 |
| 20260902165457 | 91 | 345 | 2.0 | 8.0 | 0.00 | 0.00 | 0.00 | 59 | 1014.7 |
| 20260902165358 | 91 | 89 | 0.0 | 8.0 | 0.00 | 0.00 | 0.00 | 59 | 1014.7 |
| 20260902165259 | 91 | 90 | 0.0 | 8.0 | 0.00 | 0.00 | 0.00 | 59 | 1014.8 |
| 20260902165057 | 91 | 94 | 1.0 | 5.0 | 0.00 | 0.00 | 0.00 | 59 | 1014.7 |
| 20260902164959 | 91 | 102 | 1.0 | 3.0 | 0.00 | 0.00 | 0.00 | 58 | 1014.7 |
| 20260902164858 | 91 | 102 | 0.0 | 3.0 | 0.00 | 0.00 | 0.00 | 57 | 1014.7 |
| 20260902164800 | 91 | 102 | 0.0 | 3.0 | 0.00 | 0.00 | 0.00 | 57 | 1014.7 |
| 20260902164659 | 90 | 102 | 0.0 | 3.0 | 0.00 | 0.00 | 0.00 | 57 | 1014.7 |
| 20260902164559 | 90 | 102 | 0.0 | 3.0 | 0.00 | 0.00 | 0.00 | 57 | 1014.7 |
| 20260902164500 | 90 | 102 | 1.0 | 3.0 | 0.00 | 0.00 | 0.00 | 56 | 1014.8 |
| 20260902164400 | 90 | 102 | 0.0 | 3.0 | 0.00 | 0.00 | 0.00 | 56 | 1014.7 |
| 20260902164300 | 90 | 102 | 0.0 | 3.0 | 0.00 | 0.00 | 0.00 | 56 | 1014.7 |
| 20260902164157 | 90 | 102 | 1.0 | 3.0 | 0.00 | 0.00 | 0.00 | 56 | 1014.8 |
| 20260902164058 | 90 | 102 | 1.0 | 3.0 | 0.00 | 0.00 | 0.00 | 56 | 1014.8 |
| 20260902164001 | 90 | 104 | 0.0 | 4.0 | 0.00 | 0.00 | 0.00 | 55 | 1014.8 |
| 20260902163758 | 90 | 104 | 0.0 | 4.0 | 0.00 | 0.00 | 0.00 | 55 | 1014.8 |
| 20260902163600 | 90 | 104 | 1.0 | 4.0 | 0.00 | 0.00 | 0.00 | 54 | 1014.9 |
| 20260902163500 | 90 | 104 | 0.0 | 4.0 | 0.00 | 0.00 | 0.00 | 54 | 1014.9 |
| 20260902163358 | 90 | 104 | 1.0 | 4.0 | 0.00 | 0.00 | 0.00 | 54 | 1014.9 |
| 20260902163257 | 90 | 104 | 1.0 | 4.0 | 0.00 | 0.00 | 0.00 | 54 | 1014.9 |
| 20260902163200 | 90 | 104 | 0.0 | 4.0 | 0.00 | 0.00 | 0.00 | 53 | 1014.9 |
| 20260902163058 | 89 | 104 | 2.0 | 4.0 | 0.00 | 0.00 | 0.00 | 53 | 1015.0 |
| 20260902163000 | 89 | 325 | 2.0 | 4.0 | 0.00 | 0.00 | 0.00 | 53 | 1015.0 |
| 20260902162859 | 89 | 325 | 2.0 | 4.0 | 0.00 | 0.00 | 0.00 | 53 | 1015.0 |
| 20260902162800 | 89 | 284 | 1.0 | 4.0 | 0.00 | 0.00 | 0.00 | 52 | 1015.0 |
| 20260902162558 | 89 | 285 | 0.0 | 4.0 | 0.00 | 0.00 | 0.00 | 52 | 1015.0 |
| 20260902162358 | 89 | 285 | 0.0 | 4.0 | 0.00 | 0.00 | 0.00 | 52 | 1015.0 |
| 20260902162259 | 89 | 300 | 1.0 | 4.0 | 0.00 | 0.00 | 0.00 | 52 | 1015.0 |
| 20260902162057 | 89 | 323 | 2.0 | 3.0 | 0.00 | 0.00 | 0.00 | 51 | 1014.9 |
| 20260902162002 | 89 | 321 | 0.0 | 3.0 | 0.00 | 0.00 | 0.00 | 49 | 1015.0 |
| 20260902161800 | 88 | 85 | 0.0 | 4.0 | 0.00 | 0.00 | 0.00 | 48 | 1015.1 |
| 20260902161658 | 88 | 85 | 0.0 | 4.0 | 0.00 | 0.00 | 0.00 | 48 | 1015.0 |
| 20260902161600 | 88 | 132 | 0.0 | 4.0 | 0.00 | 0.00 | 0.00 | 47 | 1015.0 |
| 20260902161500 | 88 | 132 | 0.0 | 4.0 | 0.00 | 0.00 | 0.00 | 47 | 1015.1 |
| 20260902161400 | 88 | 132 | 0.0 | 4.0 | 0.00 | 0.00 | 0.00 | 47 | 1015.1 |
| 20260902161257 | 88 | 132 | 0.0 | 5.0 | 0.00 | 0.00 | 0.00 | 47 | 1015.1 |
| 20260902161158 | 88 | 132 | 0.0 | 5.0 | 0.00 | 0.00 | 0.00 | 46 | 1015.0 |
| 20260902161100 | 88 | 128 | 2.0 | 5.0 | 0.00 | 0.00 | 0.00 | 46 | 1015.1 |
| 20260902161001 | 88 | 254 | 0.0 | 5.0 | 0.00 | 0.00 | 0.00 | 46 | 1015.1 |
| 20260902160900 | 88 | 271 | 0.0 | 6.0 | 0.00 | 0.00 | 0.00 | 46 | 1015.0 |
| 20260902160800 | 88 | 271 | 0.0 | 6.0 | 0.00 | 0.00 | 0.00 | 47 | 1015.0 |
| 20260902160659 | 88 | 269 | 0.0 | 6.0 | 0.00 | 0.00 | 0.00 | 46 | 1015.1 |
| 20260902160600 | 88 | 191 | 0.0 | 6.0 | 0.00 | 0.00 | 0.00 | 46 | 1015.0 |
| 20260902160358 | 87 | 274 | 0.0 | 6.0 | 0.00 | 0.00 | 0.00 | 44 | 1015.1 |
| 20260902160259 | 87 | 274 | 0.0 | 6.0 | 0.00 | 0.00 | 0.00 | 43 | 1015.1 |
| 20260902160058 | 87 | 283 | 3.0 | 7.0 | 0.00 | 0.00 | 0.00 | 43 | 1015.0 |
| 20260902160000 | 87 | 4 | 1.0 | 5.0 | 0.00 | 0.00 | 0.00 | 41 | 1015.1 |
| 20260902155859 | 87 | 41 | 1.0 | 5.0 | 0.00 | 0.00 | 0.00 | 41 | 1015.1 |
| 20260902155759 | 87 | 69 | 1.0 | 5.0 | 0.00 | 0.00 | 0.00 | 41 | 1015.1 |
| 20260902155700 | 87 | 262 | 0.0 | 5.0 | 0.00 | 0.00 | 0.00 | 40 | 1015.1 |
| 20260902155601 | 87 | 262 | 0.0 | 5.0 | 0.00 | 0.00 | 0.00 | 40 | 1015.1 |
| 20260902155458 | 87 | 262 | 0.0 | 5.0 | 0.00 | 0.00 | 0.00 | 39 | 1015.1 |
| 20260902155359 | 87 | 261 | 0.0 | 5.0 | 0.00 | 0.00 | 0.00 | 39 | 1015.0 |
| 20260902155258 | 87 | 229 | 1.0 | 5.0 | 0.00 | 0.00 | 0.00 | 39 | 1015.0 |
| 20260902155159 | 87 | 229 | 0.0 | 5.0 | 0.00 | 0.00 | 0.00 | 37 | 1015.0 |
| 20260902155101 | 87 | 296 | 0.0 | 5.0 | 0.00 | 0.00 | 0.00 | 35 | 1015.0 |
| 20260902154858 | 86 | 296 | 2.0 | 6.0 | 0.00 | 0.00 | 0.00 | 36 | 1014.9 |
| 20260902154658 | 86 | 294 | 0.0 | 6.0 | 0.00 | 0.00 | 0.00 | 34 | 1015.0 |
| 20260902154500 | 86 | 302 | 0.0 | 6.0 | 0.00 | 0.00 | 0.00 | 33 | 1015.1 |
| 20260902154359 | 86 | 302 | 0.0 | 6.0 | 0.00 | 0.00 | 0.00 | 33 | 1015.0 |
| 20260902154258 | 86 | 299 | 0.0 | 6.0 | 0.00 | 0.00 | 0.00 | 32 | 1015.0 |
| 20260902154159 | 86 | 298 | 0.0 | 6.0 | 0.00 | 0.00 | 0.00 | 34 | 1014.9 |
| 20260902154058 | 86 | 298 | 0.0 | 6.0 | 0.00 | 0.00 | 0.00 | 34 | 1015.0 |
| 20260902154001 | 86 | 287 | 0.0 | 5.0 | 0.00 | 0.00 | 0.00 | 33 | 1014.9 |
| 20260902153859 | 86 | 287 | 0.0 | 5.0 | 0.00 | 0.00 | 0.00 | 32 | 1014.9 |
| 20260902153800 | 86 | 321 | 1.0 | 5.0 | 0.00 | 0.00 | 0.00 | 31 | 1014.9 |
| 20260902153659 | 86 | 224 | 0.0 | 5.0 | 0.00 | 0.00 | 0.00 | 30 | 1014.9 |
| 20260902153559 | 85 | 321 | 1.0 | 5.0 | 0.00 | 0.00 | 0.00 | 29 | 1014.9 |
| 20260902153459 | 85 | 302 | 1.0 | 5.0 | 0.00 | 0.00 | 0.00 | 28 | 1014.9 |
| 20260902153401 | 85 | 302 | 0.0 | 5.0 | 0.00 | 0.00 | 0.00 | 28 | 1014.9 |
| 20260902153259 | 85 | 314 | 1.0 | 5.0 | 0.00 | 0.00 | 0.00 | 27 | 1014.9 |
| 20260902153159 | 85 | 314 | 1.0 | 5.0 | 0.00 | 0.00 | 0.00 | 26 | 1014.9 |
| 20260902153100 | 85 | 314 | 0.0 | 5.0 | 0.00 | 0.00 | 0.00 | 26 | 1014.9 |
| 20260902153000 | 85 | 314 | 0.0 | 5.0 | 0.00 | 0.00 | 0.00 | 27 | 1014.8 |
| 20260902152859 | 85 | 314 | 1.0 | 5.0 | 0.00 | 0.00 | 0.00 | 27 | 1014.9 |
| 20260902152759 | 85 | 314 | 0.0 | 8.0 | 0.00 | 0.00 | 0.00 | 26 | 1014.8 |
| 20260902152701 | 85 | 328 | 1.0 | 8.0 | 0.00 | 0.00 | 0.00 | 26 | 1014.8 |
| 20260902152459 | 85 | 302 | 0.0 | 8.0 | 0.00 | 0.00 | 0.00 | 25 | 1014.8 |
| 20260902152359 | 85 | 277 | 2.0 | 8.0 | 0.00 | 0.00 | 0.00 | 25 | 1014.8 |
| 20260902152259 | 85 | 277 | 2.0 | 8.0 | 0.00 | 0.00 | 0.00 | 25 | 1014.8 |
| 20260902152058 | 85 | 258 | 1.0 | 8.0 | 0.00 | 0.00 | 0.00 | 24 | 1014.8 |
| 20260902152001 | 85 | 258 | 3.0 | 8.0 | 0.00 | 0.00 | 0.00 | 22 | 1014.8 |
| 20260902151900 | 85 | 302 | 0.0 | 4.0 | 0.00 | 0.00 | 0.00 | 21 | 1014.8 |
| 20260902151759 | 85 | 302 | 2.0 | 5.0 | 0.00 | 0.00 | 0.00 | 21 | 1014.7 |
| 20260902151659 | 85 | 302 | 1.0 | 5.0 | 0.00 | 0.00 | 0.00 | 21 | 1014.7 |
| 20260902151559 | 85 | 303 | 1.0 | 5.0 | 0.00 | 0.00 | 0.00 | 20 | 1014.7 |
| 20260902151459 | 84 | 296 | 0.0 | 6.0 | 0.00 | 0.00 | 0.00 | 18 | 1014.7 |
| 20260902151359 | 84 | 296 | 0.0 | 6.0 | 0.00 | 0.00 | 0.00 | 18 | 1014.7 |
| 20260902151259 | 84 | 296 | 1.0 | 6.0 | 0.00 | 0.00 | 0.00 | 18 | 1014.7 |
| 20260902151159 | 84 | 296 | 0.0 | 7.0 | 0.00 | 0.00 | 0.00 | 18 | 1014.8 |
| 20260902151059 | 84 | 296 | 0.0 | 7.0 | 0.00 | 0.00 | 0.00 | 18 | 1014.7 |
| 20260902151001 | 84 | 296 | 3.0 | 7.0 | 0.00 | 0.00 | 0.00 | 17 | 1014.7 |
| 20260902150859 | 84 | 203 | 1.0 | 7.0 | 0.00 | 0.00 | 0.00 | 16 | 1014.8 |
| 20260902150759 | 84 | 204 | 0.0 | 7.0 | 0.00 | 0.00 | 0.00 | 16 | 1014.7 |
| 20260902150659 | 84 | 288 | 2.0 | 7.0 | 0.00 | 0.00 | 0.00 | 15 | 1014.7 |
| 20260902150559 | 84 | 285 | 0.0 | 7.0 | 0.00 | 0.00 | 0.00 | 14 | 1014.7 |
| 20260902150459 | 84 | 281 | 3.0 | 7.0 | 0.00 | 0.00 | 0.00 | 13 | 1014.7 |
| 20260902150400 | 84 | 258 | 1.0 | 7.0 | 0.00 | 0.00 | 0.00 | 13 | 1014.7 |
| 20260902150258 | 84 | 267 | 2.0 | 6.0 | 0.00 | 0.00 | 0.00 | 12 | 1014.7 |
| 20260902150059 | 84 | 227 | 2.0 | 8.0 | 0.00 | 0.00 | 0.00 | 11 | 1014.6 |
| 20260902150003 | 84 | 264 | 5.0 | 8.0 | 0.00 | 0.00 | 0.00 | 10 | 1014.6 |
| 20260902145859 | 84 | 330 | 1.0 | 8.0 | 0.00 | 0.00 | 0.00 | 10 | 1014.7 |
| 20260902145658 | 83 | 258 | 2.0 | 8.0 | 0.00 | 0.00 | 0.00 | 9 | 1014.7 |
| 20260902145600 | 83 | 262 | 3.0 | 8.0 | 0.00 | 0.00 | 0.00 | 8 | 1014.7 |
| 20260902145459 | 83 | 257 | 0.0 | 8.0 | 0.00 | 0.00 | 0.00 | 8 | 1014.7 |
| 20260902145359 | 83 | 257 | 0.0 | 8.0 | 0.00 | 0.00 | 0.00 | 8 | 1014.7 |
| 20260902145259 | 83 | 277 | 3.0 | 8.0 | 0.00 | 0.00 | 0.00 | 4 | 1014.7 |
| 20260902145200 | 83 | 286 | 0.0 | 8.0 | 0.00 | 0.00 | 0.00 | 4 | 1014.7 |
| 20260902145059 | 83 | 286 | 0.0 | 8.0 | 0.00 | 0.00 | 0.00 | 4 | 1014.7 |
| 20260902144859 | 83 | 201 | 0.0 | 7.0 | 0.00 | 0.00 | 0.00 | 3 | 1014.7 |
| 20260902144800 | 83 | 201 | 0.0 | 7.0 | 0.00 | 0.00 | 0.00 | 2 | 1014.7 |
| 20260902144659 | 83 | 198 | 1.0 | 7.0 | 0.00 | 0.00 | 0.00 | 100 | 1014.7 |
| 20260902144602 | 83 | 287 | 0.0 | 2.0 | 0.00 | 0.00 | 0.00 | 100 | 1014.7 |
| 20260902144359 | 83 | 287 | 0.0 | 3.0 | 0.00 | 0.00 | 0.00 | 100 | 1014.7 |
| 20260902144158 | 83 | 287 | 0.0 | 3.0 | 0.00 | 0.00 | 0.00 | 100 | 1014.7 |
| 20260902143959 | 83 | 287 | 0.0 | 5.0 | 0.00 | 0.00 | 0.00 | 100 | 1014.7 |
| 20260902143859 | 82 | 287 | 0.0 | 5.0 | 0.00 | 0.00 | 0.00 | 100 | 1014.7 |
| 20260902143800 | 82 | 287 | 0.0 | 5.0 | 0.00 | 0.00 | 0.00 | 100 | 1014.7 |
| 20260902143700 | 82 | 287 | 0.0 | 5.0 | 0.00 | 0.00 | 0.00 | 100 | 1014.7 |
| 20260902143559 | 82 | 287 | 1.0 | 5.0 | 0.00 | 0.00 | 0.00 | 100 | 1014.7 |
| 20260902143459 | 82 | 287 | 0.0 | 5.0 | 0.00 | 0.00 | 0.00 | 100 | 1014.6 |
| 20260902143158 | 82 | 277 | 1.0 | 4.0 | 0.00 | 0.00 | 0.00 | 100 | 1014.6 |
| 20260902143059 | 82 | 271 | 0.0 | 4.0 | 0.00 | 0.00 | 0.00 | 100 | 1014.6 |
| 20260902142958 | 82 | 271 | 0.0 | 4.0 | 0.00 | 0.00 | 0.00 | 100 | 1014.6 |
| 20260902142859 | 82 | 271 | 0.0 | 4.0 | 0.00 | 0.00 | 0.00 | 100 | 1014.7 |
| 20260902142800 | 82 | 271 | 0.0 | 4.0 | 0.00 | 0.00 | 0.00 | 100 | 1014.6 |
| 20260902142657 | 82 | 271 | 2.0 | 4.0 | 0.00 | 0.00 | 0.00 | 100 | 1014.6 |
| 20260902142600 | 82 | 270 | 0.0 | 4.0 | 0.00 | 0.00 | 0.00 | 100 | 1014.7 |
| 20260902142457 | 82 | 275 | 2.0 | 4.0 | 0.00 | 0.00 | 0.00 | 100 | 1014.6 |
| 20260902142359 | 81 | 273 | 0.0 | 4.0 | 0.00 | 0.00 | 0.00 | 100 | 1014.6 |
| 20260902142259 | 81 | 273 | 0.0 | 4.0 | 0.00 | 0.00 | 0.00 | 100 | 1014.7 |
| 20260902142057 | 81 | 273 | 4.0 | 4.0 | 0.00 | 0.00 | 0.00 | 100 | 1014.7 |
| 20260902142001 | 81 | 299 | 3.0 | 4.0 | 0.00 | 0.00 | 0.00 | 100 | 1014.7 |
| 20260902141857 | 81 | 299 | 0.0 | 4.0 | 0.00 | 0.00 | 0.00 | 100 | 1014.7 |
| 20260902141759 | 81 | 298 | 0.0 | 4.0 | 0.00 | 0.00 | 0.00 | 100 | 1014.7 |
| 20260902141659 | 81 | 298 | 0.0 | 4.0 | 0.00 | 0.00 | 0.00 | 100 | 1014.7 |
| 20260902141600 | 81 | 298 | 0.0 | 4.0 | 0.00 | 0.00 | 0.00 | 100 | 1014.7 |
| 20260902141500 | 81 | 298 | 0.0 | 4.0 | 0.00 | 0.00 | 0.00 | 100 | 1014.7 |
| 20260902141359 | 81 | 298 | 0.0 | 4.0 | 0.00 | 0.00 | 0.00 | 100 | 1014.7 |
| 20260902141259 | 81 | 298 | 0.0 | 3.0 | 0.00 | 0.00 | 0.00 | 100 | 1014.7 |
| 20260902140959 | 81 | 298 | 0.0 | 3.0 | 0.00 | 0.00 | 0.00 | 100 | 1014.6 |
| 20260902140559 | 81 | 298 | 0.0 | 3.0 | 0.00 | 0.00 | 0.00 | 100 | 1014.6 |
| 20260902140500 | 81 | 294 | 0.0 | 2.0 | 0.00 | 0.00 | 0.00 | 100 | 1014.6 |
| 20260902140359 | 81 | 294 | 0.0 | 2.0 | 0.00 | 0.00 | 0.00 | 100 | 1014.7 |
| 20260902140259 | 80 | 294 | 0.0 | 2.0 | 0.00 | 0.00 | 0.00 | 100 | 1014.7 |
| 20260902140158 | 80 | 294 | 1.0 | 2.0 | 0.00 | 0.00 | 0.00 | 100 | 1014.6 |
| 20260902140059 | 80 | 294 | 0.0 | 2.0 | 0.00 | 0.00 | 0.00 | 100 | 1014.7 |
| 20260902140006 | 80 | 295 | 1.0 | 5.0 | 0.00 | 0.00 | 0.00 | 100 | 1014.7 |
| 20260902135857 | 80 | 295 | 0.0 | 5.0 | 0.00 | 0.00 | 0.00 | 100 | 1014.7 |
| 20260902135758 | 80 | 295 | 0.0 | 5.0 | 0.00 | 0.00 | 0.00 | 100 | 1014.6 |
| 20260902135657 | 80 | 295 | 0.0 | 5.0 | 0.00 | 0.00 | 0.00 | 100 | 1014.7 |
| 20260902135600 | 80 | 295 | 0.0 | 5.0 | 0.00 | 0.00 | 0.00 | 100 | 1014.7 |
| 20260902135459 | 80 | 295 | 0.0 | 5.0 | 0.00 | 0.00 | 0.00 | 100 | 1014.7 |
| 20260902135359 | 80 | 295 | 0.0 | 5.0 | 0.00 | 0.00 | 0.00 | 100 | 1014.7 |
| 20260902135258 | 80 | 295 | 0.0 | 5.0 | 0.00 | 0.00 | 0.00 | 100 | 1014.7 |
| 20260902135200 | 80 | 295 | 0.0 | 5.0 | 0.00 | 0.00 | 0.00 | 100 | 1014.6 |
| 20260902135057 | 80 | 295 | 0.0 | 3.0 | 0.00 | 0.00 | 0.00 | 100 | 1014.7 |
| 20260902134959 | 80 | 295 | 0.0 | 2.0 | 0.00 | 0.00 | 0.00 | 100 | 1014.7 |
| 20260902134857 | 80 | 308 | 0.0 | 2.0 | 0.00 | 0.00 | 0.00 | 100 | 1014.7 |
| 20260902134800 | 80 | 308 | 0.0 | 2.0 | 0.00 | 0.00 | 0.00 | 100 | 1014.8 |
| 20260902134557 | 80 | 308 | 0.0 | 2.0 | 0.00 | 0.00 | 0.00 | 100 | 1014.7 |
| 20260902134457 | 80 | 308 | 0.0 | 2.0 | 0.00 | 0.00 | 0.00 | 100 | 1014.7 |
| 20260902134400 | 80 | 308 | 0.0 | 2.0 | 0.00 | 0.00 | 0.00 | 100 | 1014.7 |
| 20260902134259 | 80 | 308 | 0.0 | 2.0 | 0.00 | 0.00 | 0.00 | 100 | 1014.7 |
| 20260902134158 | 80 | 306 | 0.0 | 2.0 | 0.00 | 0.00 | 0.00 | 100 | 1014.8 |
| 20260902134058 | 80 | 306 | 0.0 | 2.0 | 0.00 | 0.00 | 0.00 | 100 | 1014.8 |
| 20260902134001 | 80 | 306 | 0.0 | 2.0 | 0.00 | 0.00 | 0.00 | 100 | 1014.7 |
| 20260902133859 | 80 | 306 | 2.0 | 2.0 | 0.00 | 0.00 | 0.00 | 100 | 1014.7 |
| 20260902133758 | 80 | 306 | 0.0 | 2.0 | 0.00 | 0.00 | 0.00 | 100 | 1014.7 |
| 20260902133600 | 80 | 307 | 0.0 | 2.0 | 0.00 | 0.00 | 0.00 | 100 | 1014.7 |
| 20260902133459 | 80 | 307 | 0.0 | 3.0 | 0.00 | 0.00 | 0.00 | 100 | 1014.7 |
| 20260902133358 | 80 | 307 | 0.0 | 3.0 | 0.00 | 0.00 | 0.00 | 100 | 1014.7 |
| 20260902133257 | 80 | 307 | 0.0 | 3.0 | 0.00 | 0.00 | 0.00 | 100 | 1014.7 |
| 20260902133059 | 79 | 306 | 0.0 | 3.0 | 0.00 | 0.00 | 0.00 | 100 | 1014.7 |
| 20260902132959 | 79 | 306 | 0.0 | 3.0 | 0.00 | 0.00 | 0.00 | 100 | 1014.6 |
| 20260902132857 | 79 | 306 | 0.0 | 3.0 | 0.00 | 0.00 | 0.00 | 100 | 1014.7 |
| 20260902132800 | 79 | 306 | 0.0 | 3.0 | 0.00 | 0.00 | 0.00 | 100 | 1014.6 |
| 20260902132659 | 79 | 306 | 1.0 | 3.0 | 0.00 | 0.00 | 0.00 | 100 | 1014.6 |
| 20260902132601 | 79 | 306 | 0.0 | 2.0 | 0.00 | 0.00 | 0.00 | 100 | 1014.6 |
| 20260902132457 | 79 | 306 | 0.0 | 2.0 | 0.00 | 0.00 | 0.00 | 100 | 1014.6 |
| 20260902132256 | 79 | 306 | 0.0 | 2.0 | 0.00 | 0.00 | 0.00 | 100 | 1014.6 |
| 20260902132158 | 79 | 306 | 0.0 | 2.0 | 0.00 | 0.00 | 0.00 | 100 | 1014.6 |
| 20260902132057 | 79 | 306 | 0.0 | 2.0 | 0.00 | 0.00 | 0.00 | 100 | 1014.6 |
| 20260902132001 | 79 | 306 | 0.0 | 2.0 | 0.00 | 0.00 | 0.00 | 100 | 1014.6 |
| 20260902131859 | 79 | 306 | 0.0 | 2.0 | 0.00 | 0.00 | 0.00 | 100 | 1014.5 |
| 20260902131758 | 79 | 306 | 0.0 | 2.0 | 0.00 | 0.00 | 0.00 | 100 | 1014.5 |
| 20260902131559 | 79 | 306 | 0.0 | 2.0 | 0.00 | 0.00 | 0.00 | 100 | 1014.5 |
| 20260902131459 | 79 | 306 | 0.0 | 2.0 | 0.00 | 0.00 | 0.00 | 100 | 1014.4 |
| 20260902131257 | 79 | 306 | 0.0 | 2.0 | 0.00 | 0.00 | 0.00 | 100 | 1014.4 |
| 20260902131200 | 79 | 306 | 0.0 | 2.0 | 0.00 | 0.00 | 0.00 | 100 | 1014.4 |
| 20260902131059 | 79 | 306 | 0.0 | 2.0 | 0.00 | 0.00 | 0.00 | 100 | 1014.3 |
| 20260902130857 | 79 | 306 | 0.0 | 1.0 | 0.00 | 0.00 | 0.00 | 100 | 1014.4 |
| 20260902130758 | 79 | 306 | 0.0 | 1.0 | 0.00 | 0.00 | 0.00 | 100 | 1014.4 |
| 20260902130659 | 79 | 306 | 0.0 | 1.0 | 0.00 | 0.00 | 0.00 | 100 | 1014.4 |
| 20260902130600 | 79 | 306 | 0.0 | 1.0 | 0.00 | 0.00 | 0.00 | 100 | 1014.4 |
| 20260902130458 | 79 | 306 | 0.0 | 1.0 | 0.00 | 0.00 | 0.00 | 100 | 1014.5 |
| 20260902130400 | 79 | 306 | 0.0 | 1.0 | 0.00 | 0.00 | 0.00 | 100 | 1014.4 |
| 20260902130200 | 79 | 306 | 0.0 | 1.0 | 0.00 | 0.00 | 0.00 | 100 | 1014.4 |
| 20260902125959 | 79 | 306 | 0.0 | 1.0 | 0.00 | 0.00 | 0.00 | 100 | 1014.4 |
| 20260902125800 | 79 | 306 | 0.0 | 1.0 | 0.00 | 0.00 | 0.00 | 100 | 1014.4 |
| 20260902125657 | 79 | 306 | 0.0 | 1.0 | 0.00 | 0.00 | 0.00 | 100 | 1014.4 |
| 20260902125558 | 79 | 306 | 0.0 | 1.0 | 0.00 | 0.00 | 0.00 | 100 | 1014.4 |
| 20260902125459 | 79 | 306 | 0.0 | 1.0 | 0.00 | 0.00 | 0.00 | 100 | 1014.3 |
| 20260902125400 | 79 | 305 | 0.0 | 1.0 | 0.00 | 0.00 | 0.00 | 100 | 1014.3 |
| 20260902125256 | 78 | 305 | 0.0 | 1.0 | 0.00 | 0.00 | 0.00 | 100 | 1014.3 |
| 20260902125158 | 79 | 305 | 0.0 | 1.0 | 0.00 | 0.00 | 0.00 | 100 | 1014.2 |
| 20260902125059 | 78 | 305 | 0.0 | 1.0 | 0.00 | 0.00 | 0.00 | 100 | 1014.3 |
| 20260902125001 | 78 | 305 | 0.0 | 1.0 | 0.00 | 0.00 | 0.00 | 100 | 1014.2 |
| 20260902124857 | 78 | 305 | 0.0 | 1.0 | 0.00 | 0.00 | 0.00 | 100 | 1014.2 |
| 20260902124758 | 78 | 304 | 0.0 | 1.0 | 0.00 | 0.00 | 0.00 | 100 | 1014.2 |
| 20260902124659 | 78 | 304 | 0.0 | 0.0 | 0.00 | 0.00 | 0.00 | 100 | 1014.2 |
| 20260902124559 | 78 | 304 | 0.0 | 0.0 | 0.00 | 0.00 | 0.00 | 100 | 1014.2 |
| 20260902124459 | 78 | 304 | 0.0 | 0.0 | 0.00 | 0.00 | 0.00 | 100 | 1014.2 |
| 20260902124358 | 78 | 304 | 0.0 | 1.0 | 0.00 | 0.00 | 0.00 | 100 | 1014.1 |
| 20260902124257 | 78 | 304 | 0.0 | 1.0 | 0.00 | 0.00 | 0.00 | 100 | 1014.1 |
| 20260902124059 | 78 | 304 | 0.0 | 1.0 | 0.00 | 0.00 | 0.00 | 100 | 1014.1 |
| 20260902124001 | 78 | 304 | 0.0 | 1.0 | 0.00 | 0.00 | 0.00 | 100 | 1014.0 |
| 20260902123857 | 78 | 304 | 0.0 | 1.0 | 0.00 | 0.00 | 0.00 | 100 | 1014.1 |
| 20260902123759 | 78 | 304 | 0.0 | 1.0 | 0.00 | 0.00 | 0.00 | 100 | 1014.0 |
| 20260902123657 | 78 | 304 | 0.0 | 1.0 | 0.00 | 0.00 | 0.00 | 100 | 1014.0 |
| 20260902123459 | 78 | 304 | 0.0 | 1.0 | 0.00 | 0.00 | 0.00 | 100 | 1013.9 |
| 20260902123400 | 78 | 304 | 1.0 | 1.0 | 0.00 | 0.00 | 0.00 | 100 | 1013.8 |
| 20260902123259 | 78 | 304 | 0.0 | 1.0 | 0.00 | 0.00 | 0.00 | 100 | 1013.8 |
| 20260902123057 | 78 | 304 | 0.0 | 2.0 | 0.00 | 0.00 | 0.00 | 100 | 1013.7 |
| 20260902123001 | 78 | 304 | 0.0 | 2.0 | 0.00 | 0.00 | 0.00 | 100 | 1013.7 |
| 20260902122859 | 78 | 304 | 0.0 | 2.0 | 0.00 | 0.00 | 0.00 | 100 | 1013.7 |
| 20260902122758 | 78 | 304 | 0.0 | 2.0 | 0.00 | 0.00 | 0.00 | 100 | 1013.6 |
| 20260902122657 | 78 | 304 | 0.0 | 2.0 | 0.00 | 0.00 | 0.00 | 100 | 1013.6 |
| 20260902122600 | 78 | 304 | 0.0 | 2.0 | 0.00 | 0.00 | 0.00 | 100 | 1013.5 |
| 20260902122459 | 78 | 304 | 0.0 | 2.0 | 0.00 | 0.00 | 0.00 | 100 | 1013.6 |
| 20260902122358 | 78 | 304 | 0.0 | 2.0 | 0.00 | 0.00 | 0.00 | 100 | 1013.5 |
| 20260902122257 | 78 | 304 | 0.0 | 2.0 | 0.00 | 0.00 | 0.00 | 100 | 1013.4 |
| 20260902122159 | 78 | 304 | 0.0 | 1.0 | 0.00 | 0.00 | 0.00 | 100 | 1013.4 |
| 20260902122059 | 78 | 304 | 0.0 | 1.0 | 0.00 | 0.00 | 0.00 | 100 | 1013.4 |
| 20260902121958 | 78 | 304 | 0.0 | 1.0 | 0.00 | 0.00 | 0.00 | 100 | 1013.4 |
| 20260902121857 | 78 | 304 | 0.0 | 1.0 | 0.00 | 0.00 | 0.00 | 100 | 1013.3 |
| 20260902121800 | 78 | 304 | 0.0 | 2.0 | 0.00 | 0.00 | 0.00 | 100 | 1013.4 |
| 20260902121659 | 78 | 304 | 0.0 | 2.0 | 0.00 | 0.00 | 0.00 | 100 | 1013.3 |
| 20260902121557 | 78 | 304 | 0.0 | 2.0 | 0.00 | 0.00 | 0.00 | 100 | 1013.3 |
| 20260902121457 | 78 | 304 | 0.0 | 2.0 | 0.00 | 0.00 | 0.00 | 100 | 1013.3 |
| 20260902121359 | 78 | 304 | 0.0 | 2.0 | 0.00 | 0.00 | 0.00 | 100 | 1013.3 |
| 20260902121259 | 78 | 304 | 0.0 | 2.0 | 0.00 | 0.00 | 0.00 | 100 | 1013.3 |
| 20260902121157 | 78 | 304 | 0.0 | 2.0 | 0.00 | 0.00 | 0.00 | 100 | 1013.3 |
| 20260902121057 | 78 | 304 | 0.0 | 2.0 | 0.00 | 0.00 | 0.00 | 100 | 1013.3 |
| 20260902121001 | 78 | 303 | 0.0 | 2.0 | 0.00 | 0.00 | 0.00 | 100 | 1013.3 |
| 20260902120859 | 78 | 304 | 0.0 | 1.0 | 0.00 | 0.00 | 0.00 | 100 | 1013.2 |
| 20260902120657 | 78 | 304 | 0.0 | 1.0 | 0.00 | 0.00 | 0.00 | 100 | 1013.2 |
| 20260902120600 | 78 | 304 | 0.0 | 0.0 | 0.00 | 0.00 | 0.00 | 100 | 1013.2 |
| 20260902120459 | 78 | 304 | 0.0 | 0.0 | 0.00 | 0.00 | 0.00 | 100 | 1013.2 |
| 20260902120358 | 78 | 304 | 0.0 | 0.0 | 0.00 | 0.00 | 0.00 | 100 | 1013.2 |
| 20260902120257 | 78 | 304 | 0.0 | 0.0 | 0.00 | 0.00 | 0.00 | 100 | 1013.2 |
| 20260902120059 | 78 | 304 | 0.0 | 0.0 | 0.00 | 0.00 | 0.00 | 100 | 1013.2 |
| 20260902115857 | 78 | 304 | 0.0 | 1.0 | 0.00 | 0.00 | 0.00 | 100 | 1013.2 |
| 20260902115800 | 78 | 304 | 0.0 | 1.0 | 0.00 | 0.00 | 0.00 | 100 | 1013.2 |
| 20260902115700 | 78 | 304 | 0.0 | 1.0 | 0.00 | 0.00 | 0.00 | 100 | 1013.2 |
| 20260902115557 | 78 | 304 | 0.0 | 1.0 | 0.00 | 0.00 | 0.00 | 100 | 1013.2 |
| 20260902115359 | 78 | 304 | 0.0 | 1.0 | 0.00 | 0.00 | 0.00 | 100 | 1013.3 |
| 20260902115200 | 78 | 304 | 0.0 | 1.0 | 0.00 | 0.00 | 0.00 | 100 | 1013.2 |
| 20260902115059 | 78 | 304 | 0.0 | 1.0 | 0.00 | 0.00 | 0.00 | 100 | 1013.2 |
| 20260902114958 | 78 | 304 | 0.0 | 1.0 | 0.00 | 0.00 | 0.00 | 100 | 1013.2 |
| 20260902114900 | 78 | 304 | 0.0 | 1.0 | 0.00 | 0.00 | 0.00 | 100 | 1013.2 |
| 20260902114757 | 78 | 304 | 0.0 | 1.0 | 0.00 | 0.00 | 0.00 | 100 | 1013.2 |
| 20260902114657 | 78 | 304 | 0.0 | 1.0 | 0.00 | 0.00 | 0.00 | 100 | 1013.3 |
| 20260902114558 | 78 | 303 | 1.0 | 1.0 | 0.00 | 0.00 | 0.00 | 100 | 1013.2 |
| 20260902114500 | 78 | 304 | 0.0 | 1.0 | 0.00 | 0.00 | 0.00 | 100 | 1013.2 |
| 20260902114400 | 78 | 303 | 0.0 | 1.0 | 0.00 | 0.00 | 0.00 | 100 | 1013.2 |
| 20260902114257 | 78 | 303 | 0.0 | 1.0 | 0.00 | 0.00 | 0.00 | 100 | 1013.2 |
| 20260902114200 | 78 | 303 | 0.0 | 1.0 | 0.00 | 0.00 | 0.00 | 100 | 1013.3 |
| 20260902114001 | 78 | 304 | 0.0 | 1.0 | 0.00 | 0.00 | 0.00 | 100 | 1013.2 |
| 20260902113857 | 78 | 304 | 0.0 | 1.0 | 0.00 | 0.00 | 0.00 | 100 | 1013.2 |
| 20260902113758 | 78 | 304 | 0.0 | 1.0 | 0.00 | 0.00 | 0.00 | 100 | 1013.2 |
| 20260902113658 | 78 | 303 | 0.0 | 0.0 | 0.00 | 0.00 | 0.00 | 100 | 1013.3 |
| 20260902113459 | 78 | 303 | 0.0 | 0.0 | 0.00 | 0.00 | 0.00 | 100 | 1013.3 |
| 20260902113358 | 78 | 303 | 0.0 | 0.0 | 0.00 | 0.00 | 0.00 | 100 | 1013.3 |
| 20260902113259 | 78 | 303 | 0.0 | 0.0 | 0.00 | 0.00 | 0.00 | 100 | 1013.4 |
| 20260902113159 | 78 | 303 | 0.0 | 1.0 | 0.00 | 0.00 | 0.00 | 100 | 1013.3 |
| 20260902113057 | 78 | 303 | 0.0 | 1.0 | 0.00 | 0.00 | 0.00 | 100 | 1013.4 |
| 20260902112959 | 78 | 303 | 0.0 | 1.0 | 0.00 | 0.00 | 0.00 | 100 | 1013.4 |
| 20260902112859 | 78 | 303 | 0.0 | 1.0 | 0.00 | 0.00 | 0.00 | 100 | 1013.4 |
| 20260902112800 | 78 | 303 | 0.0 | 1.0 | 0.00 | 0.00 | 0.00 | 100 | 1013.4 |
| 20260902112657 | 78 | 303 | 0.0 | 1.0 | 0.00 | 0.00 | 0.00 | 100 | 1013.4 |
| 20260902112557 | 78 | 303 | 0.0 | 1.0 | 0.00 | 0.00 | 0.00 | 100 | 1013.3 |
| 20260902112459 | 78 | 303 | 0.0 | 1.0 | 0.00 | 0.00 | 0.00 | 100 | 1013.3 |
| 20260902112359 | 78 | 303 | 0.0 | 1.0 | 0.00 | 0.00 | 0.00 | 100 | 1013.3 |
| 20260902112259 | 78 | 303 | 0.0 | 0.0 | 0.00 | 0.00 | 0.00 | 100 | 1013.3 |
| 20260902112158 | 78 | 303 | 0.0 | 0.0 | 0.00 | 0.00 | 0.00 | 100 | 1013.4 |
| 20260902112059 | 78 | 303 | 0.0 | 0.0 | 0.00 | 0.00 | 0.00 | 100 | 1013.3 |
| 20260902112001 | 78 | 303 | 0.0 | 0.0 | 0.00 | 0.00 | 0.00 | 100 | 1013.3 |
| 20260902111859 | 78 | 303 | 0.0 | 0.0 | 0.00 | 0.00 | 0.00 | 100 | 1013.3 |
| 20260902111657 | 78 | 303 | 0.0 | 0.0 | 0.00 | 0.00 | 0.00 | 100 | 1013.3 |
| 20260902111559 | 78 | 303 | 0.0 | 0.0 | 0.00 | 0.00 | 0.00 | 100 | 1013.3 |
| 20260902111459 | 78 | 303 | 0.0 | 0.0 | 0.00 | 0.00 | 0.00 | 100 | 1013.2 |
| 20260902111257 | 78 | 303 | 0.0 | 0.0 | 0.00 | 0.00 | 0.00 | 100 | 1013.3 |
| 20260902111200 | 78 | 303 | 0.0 | 0.0 | 0.00 | 0.00 | 0.00 | 100 | 1013.3 |
| 20260902111059 | 78 | 303 | 0.0 | 0.0 | 0.00 | 0.00 | 0.00 | 100 | 1013.2 |
| 20260902110959 | 78 | 303 | 0.0 | 0.0 | 0.00 | 0.00 | 0.00 | 100 | 1013.3 |
| 20260902110857 | 78 | 303 | 0.0 | 0.0 | 0.00 | 0.00 | 0.00 | 100 | 1013.3 |
| 20260902110459 | 78 | 303 | 0.0 | 0.0 | 0.00 | 0.00 | 0.00 | 100 | 1013.2 |
| 20260902110400 | 78 | 303 | 0.0 | 0.0 | 0.00 | 0.00 | 0.00 | 100 | 1013.2 |
| 20260902110257 | 78 | 303 | 0.0 | 0.0 | 0.00 | 0.00 | 0.00 | 100 | 1013.2 |
| 20260902110158 | 78 | 303 | 0.0 | 0.0 | 0.00 | 0.00 | 0.00 | 100 | 1013.2 |
| 20260902110057 | 78 | 303 | 0.0 | 0.0 | 0.00 | 0.00 | 0.00 | 100 | 1013.2 |
| 20260902110007 | 78 | 303 | 0.0 | 0.0 | 0.00 | 0.00 | 0.00 | 100 | 1013.2 |
| 20260902105859 | 78 | 303 | 0.0 | 0.0 | 0.00 | 0.00 | 0.00 | 100 | 1013.1 |
| 20260902105800 | 78 | 303 | 0.0 | 0.0 | 0.00 | 0.00 | 0.00 | 100 | 1013.2 |
| 20260902105657 | 78 | 303 | 0.0 | 0.0 | 0.00 | 0.00 | 0.00 | 100 | 1013.2 |
| 20260902105557 | 78 | 303 | 0.0 | 0.0 | 0.00 | 0.00 | 0.00 | 100 | 1013.2 |
| 20260902105459 | 79 | 303 | 0.0 | 1.0 | 0.00 | 0.00 | 0.00 | 100 | 1013.2 |
| 20260902105359 | 79 | 303 | 0.0 | 1.0 | 0.00 | 0.00 | 0.00 | 100 | 1013.2 |
| 20260902105159 | 79 | 303 | 0.0 | 1.0 | 0.00 | 0.00 | 0.00 | 100 | 1013.2 |
| 20260902105057 | 79 | 303 | 0.0 | 1.0 | 0.00 | 0.00 | 0.00 | 100 | 1013.2 |
| 20260902105000 | 79 | 303 | 0.0 | 1.0 | 0.00 | 0.00 | 0.00 | 100 | 1013.2 |
| 20260902104800 | 79 | 303 | 0.0 | 1.0 | 0.00 | 0.00 | 0.00 | 100 | 1013.2 |
| 20260902104659 | 79 | 303 | 0.0 | 1.0 | 0.00 | 0.00 | 0.00 | 100 | 1013.3 |
| 20260902104557 | 79 | 303 | 0.0 | 1.0 | 0.00 | 0.00 | 0.00 | 100 | 1013.3 |
| 20260902104457 | 79 | 303 | 0.0 | 1.0 | 0.00 | 0.00 | 0.00 | 100 | 1013.3 |
| 20260902104359 | 79 | 303 | 0.0 | 0.0 | 0.00 | 0.00 | 0.00 | 100 | 1013.3 |
| 20260902104259 | 79 | 303 | 0.0 | 0.0 | 0.00 | 0.00 | 0.00 | 100 | 1013.3 |
| 20260902104159 | 79 | 303 | 0.0 | 0.0 | 0.00 | 0.00 | 0.00 | 100 | 1013.3 |
| 20260902104057 | 79 | 303 | 0.0 | 0.0 | 0.00 | 0.00 | 0.00 | 100 | 1013.3 |
| 20260902103959 | 79 | 303 | 0.0 | 0.0 | 0.00 | 0.00 | 0.00 | 100 | 1013.3 |
| 20260902103900 | 79 | 303 | 0.0 | 0.0 | 0.00 | 0.00 | 0.00 | 100 | 1013.3 |
| 20260902103800 | 79 | 303 | 0.0 | 0.0 | 0.00 | 0.00 | 0.00 | 100 | 1013.3 |
| 20260902103558 | 79 | 303 | 0.0 | 1.0 | 0.00 | 0.00 | 0.00 | 100 | 1013.3 |
| 20260902103459 | 79 | 303 | 0.0 | 1.0 | 0.00 | 0.00 | 0.00 | 100 | 1013.3 |
| 20260902103359 | 79 | 303 | 0.0 | 1.0 | 0.00 | 0.00 | 0.00 | 100 | 1013.3 |
| 20260902103257 | 79 | 303 | 0.0 | 1.0 | 0.00 | 0.00 | 0.00 | 100 | 1013.3 |
| 20260902103158 | 79 | 303 | 0.0 | 1.0 | 0.00 | 0.00 | 0.00 | 100 | 1013.3 |
| 20260902103058 | 79 | 303 | 0.0 | 1.0 | 0.00 | 0.00 | 0.00 | 100 | 1013.2 |
| 20260902103001 | 79 | 303 | 0.0 | 1.0 | 0.00 | 0.00 | 0.00 | 100 | 1013.2 |
| 20260902102858 | 79 | 303 | 0.0 | 1.0 | 0.00 | 0.00 | 0.00 | 100 | 1013.2 |
| 20260902102759 | 79 | 303 | 0.0 | 1.0 | 0.00 | 0.00 | 0.00 | 100 | 1013.1 |
| 20260902102459 | 79 | 303 | 0.0 | 1.0 | 0.00 | 0.00 | 0.00 | 100 | 1013.1 |
| 20260902102359 | 79 | 303 | 0.0 | 1.0 | 0.00 | 0.00 | 0.00 | 100 | 1013.0 |
| 20260902102256 | 79 | 303 | 0.0 | 1.0 | 0.00 | 0.00 | 0.00 | 100 | 1013.0 |
| 20260902102158 | 79 | 303 | 0.0 | 1.0 | 0.00 | 0.00 | 0.00 | 100 | 1013.0 |
| 20260902102059 | 79 | 303 | 0.0 | 1.0 | 0.00 | 0.00 | 0.00 | 100 | 1013.0 |
| 20260902102000 | 79 | 303 | 0.0 | 1.0 | 0.00 | 0.00 | 0.00 | 100 | 1013.0 |
| 20260902101759 | 79 | 303 | 0.0 | 1.0 | 0.00 | 0.00 | 0.00 | 100 | 1013.0 |
| 20260902101658 | 79 | 303 | 0.0 | 1.0 | 0.00 | 0.00 | 0.00 | 100 | 1013.0 |
| 20260902101458 | 79 | 303 | 0.0 | 1.0 | 0.00 | 0.00 | 0.00 | 100 | 1013.0 |
| 20260902101359 | 79 | 303 | 0.0 | 1.0 | 0.00 | 0.00 | 0.00 | 100 | 1013.0 |
| 20260902101259 | 79 | 303 | 0.0 | 1.0 | 0.00 | 0.00 | 0.00 | 100 | 1013.0 |
| 20260902101159 | 79 | 303 | 0.0 | 1.0 | 0.00 | 0.00 | 0.00 | 100 | 1013.0 |
| 20260902100859 | 79 | 303 | 0.0 | 1.0 | 0.00 | 0.00 | 0.00 | 100 | 1013.0 |
| 20260902100659 | 79 | 303 | 0.0 | 1.0 | 0.00 | 0.00 | 0.00 | 100 | 1012.9 |
| 20260902100559 | 79 | 303 | 0.0 | 2.0 | 0.00 | 0.00 | 0.00 | 100 | 1012.9 |
| 20260902100459 | 79 | 303 | 0.0 | 2.0 | 0.00 | 0.00 | 0.00 | 100 | 1012.9 |
| 20260902100359 | 79 | 303 | 0.0 | 2.0 | 0.00 | 0.00 | 0.00 | 100 | 1013.0 |
| 20260902100259 | 79 | 303 | 0.0 | 2.0 | 0.00 | 0.00 | 0.00 | 100 | 1013.0 |
| 20260902100059 | 79 | 303 | 0.0 | 2.0 | 0.00 | 0.00 | 0.00 | 100 | 1013.0 |
| 20260902100007 | 79 | 303 | 0.0 | 2.0 | 0.00 | 0.00 | 0.00 | 100 | 1013.0 |
| 20260902095900 | 79 | 303 | 0.0 | 2.0 | 0.00 | 0.00 | 0.00 | 100 | 1012.9 |
| 20260902095800 | 79 | 303 | 0.0 | 2.0 | 0.00 | 0.00 | 0.00 | 100 | 1013.0 |
| 20260902095700 | 79 | 303 | 0.0 | 2.0 | 0.00 | 0.00 | 0.00 | 100 | 1012.9 |
| 20260902095600 | 79 | 303 | 0.0 | 2.0 | 0.00 | 0.00 | 0.00 | 100 | 1012.9 |
| 20260902095500 | 79 | 303 | 0.0 | 2.0 | 0.00 | 0.00 | 0.00 | 100 | 1013.0 |
| 20260902095400 | 79 | 303 | 0.0 | 2.0 | 0.00 | 0.00 | 0.00 | 100 | 1013.0 |
| 20260902095200 | 79 | 303 | 1.0 | 2.0 | 0.00 | 0.00 | 0.00 | 100 | 1013.0 |
| 20260902095100 | 79 | 303 | 0.0 | 2.0 | 0.00 | 0.00 | 0.00 | 100 | 1013.0 |
| 20260902095001 | 79 | 303 | 1.0 | 2.0 | 0.00 | 0.00 | 0.00 | 100 | 1013.0 |
| 20260902094859 | 79 | 303 | 0.0 | 1.0 | 0.00 | 0.00 | 0.00 | 100 | 1013.0 |
| 20260902094759 | 79 | 303 | 1.0 | 1.0 | 0.00 | 0.00 | 0.00 | 100 | 1013.0 |
| 20260902094700 | 79 | 303 | 0.0 | 2.0 | 0.00 | 0.00 | 0.00 | 100 | 1013.0 |
| 20260902094600 | 79 | 303 | 0.0 | 2.0 | 0.00 | 0.00 | 0.00 | 100 | 1013.0 |
| 20260902094459 | 79 | 303 | 0.0 | 2.0 | 0.00 | 0.00 | 0.00 | 100 | 1013.0 |
| 20260902094300 | 79 | 303 | 0.0 | 2.0 | 0.00 | 0.00 | 0.00 | 100 | 1013.0 |
| 20260902094100 | 79 | 303 | 0.0 | 2.0 | 0.00 | 0.00 | 0.00 | 100 | 1013.1 |
| 20260902094000 | 79 | 303 | 0.0 | 2.0 | 0.00 | 0.00 | 0.00 | 100 | 1013.1 |
| 20260902093859 | 79 | 303 | 0.0 | 2.0 | 0.00 | 0.00 | 0.00 | 100 | 1013.0 |
| 20260902093800 | 79 | 302 | 0.0 | 2.0 | 0.00 | 0.00 | 0.00 | 100 | 1013.1 |
| 20260902093558 | 79 | 302 | 0.0 | 2.0 | 0.00 | 0.00 | 0.00 | 100 | 1013.1 |
| 20260902093500 | 79 | 302 | 0.0 | 2.0 | 0.00 | 0.00 | 0.00 | 100 | 1013.1 |
| 20260902093400 | 79 | 302 | 1.0 | 2.0 | 0.00 | 0.00 | 0.00 | 100 | 1013.1 |
| 20260902093258 | 79 | 302 | 0.0 | 1.0 | 0.00 | 0.00 | 0.00 | 100 | 1013.1 |
| 20260902093158 | 80 | 302 | 0.0 | 1.0 | 0.00 | 0.00 | 0.00 | 100 | 1013.1 |
| 20260902093058 | 79 | 302 | 0.0 | 1.0 | 0.00 | 0.00 | 0.00 | 100 | 1013.1 |
| 20260902093001 | 80 | 302 | 0.0 | 1.0 | 0.00 | 0.00 | 0.00 | 100 | 1013.1 |
| 20260902092900 | 80 | 302 | 0.0 | 2.0 | 0.00 | 0.00 | 0.00 | 100 | 1013.1 |
| 20260902092758 | 80 | 302 | 0.0 | 2.0 | 0.00 | 0.00 | 0.00 | 100 | 1013.1 |
| 20260902092700 | 80 | 302 | 0.0 | 2.0 | 0.00 | 0.00 | 0.00 | 100 | 1013.1 |
| 20260902092558 | 80 | 302 | 0.0 | 2.0 | 0.00 | 0.00 | 0.00 | 100 | 1013.1 |
| 20260902092500 | 80 | 302 | 0.0 | 2.0 | 0.00 | 0.00 | 0.00 | 100 | 1013.1 |
| 20260902092400 | 80 | 302 | 0.0 | 2.0 | 0.00 | 0.00 | 0.00 | 100 | 1013.1 |
| 20260902092300 | 80 | 302 | 0.0 | 2.0 | 0.00 | 0.00 | 0.00 | 100 | 1013.1 |
| 20260902092200 | 80 | 302 | 0.0 | 2.0 | 0.00 | 0.00 | 0.00 | 100 | 1013.1 |
| 20260902092001 | 80 | 300 | 0.0 | 1.0 | 0.00 | 0.00 | 0.00 | 100 | 1013.1 |
| 20260902091859 | 80 | 300 | 0.0 | 1.0 | 0.00 | 0.00 | 0.00 | 100 | 1013.1 |
| 20260902091759 | 80 | 300 | 0.0 | 2.0 | 0.00 | 0.00 | 0.00 | 100 | 1013.1 |
| 20260902091659 | 80 | 300 | 0.0 | 2.0 | 0.00 | 0.00 | 0.00 | 100 | 1013.0 |
| 20260902091600 | 80 | 300 | 0.0 | 2.0 | 0.00 | 0.00 | 0.00 | 100 | 1013.0 |
| 20260902091458 | 80 | 300 | 0.0 | 2.0 | 0.00 | 0.00 | 0.00 | 100 | 1013.0 |
| 20260902091359 | 80 | 300 | 0.0 | 2.0 | 0.00 | 0.00 | 0.00 | 100 | 1013.0 |
| 20260902091259 | 80 | 300 | 0.0 | 2.0 | 0.00 | 0.00 | 0.00 | 100 | 1013.0 |
| 20260902091158 | 80 | 300 | 0.0 | 2.0 | 0.00 | 0.00 | 0.00 | 100 | 1013.0 |
| 20260902091058 | 80 | 300 | 0.0 | 2.0 | 0.00 | 0.00 | 0.00 | 100 | 1012.9 |
| 20260902091000 | 80 | 300 | 0.0 | 2.0 | 0.00 | 0.00 | 0.00 | 100 | 1012.9 |
| 20260902090858 | 80 | 300 | 0.0 | 2.0 | 0.00 | 0.00 | 0.00 | 100 | 1012.9 |
| 20260902090802 | 80 | 300 | 0.0 | 2.0 | 0.00 | 0.00 | 0.00 | 100 | 1012.9 |
| 20260902090700 | 80 | 300 | 1.0 | 2.0 | 0.00 | 0.00 | 0.00 | 100 | 1012.9 |
| 20260902090558 | 80 | 300 | 0.0 | 1.0 | 0.00 | 0.00 | 0.00 | 100 | 1012.9 |
| 20260902090458 | 80 | 300 | 0.0 | 1.0 | 0.00 | 0.00 | 0.00 | 100 | 1012.8 |
| 20260902090400 | 80 | 300 | 1.0 | 1.0 | 0.00 | 0.00 | 0.00 | 100 | 1012.9 |
| 20260902090259 | 80 | 300 | 0.0 | 1.0 | 0.00 | 0.00 | 0.00 | 100 | 1012.9 |
| 20260902090159 | 80 | 300 | 0.0 | 1.0 | 0.00 | 0.00 | 0.00 | 100 | 1012.9 |
| 20260902090059 | 80 | 300 | 0.0 | 4.0 | 0.00 | 0.00 | 0.00 | 100 | 1012.8 |
| 20260902090005 | 80 | 300 | 0.0 | 4.0 | 0.00 | 0.00 | 0.00 | 100 | 1012.8 |
| 20260902085859 | 80 | 300 | 0.0 | 4.0 | 0.00 | 0.00 | 0.00 | 100 | 1012.8 |
| 20260902085758 | 80 | 300 | 0.0 | 4.0 | 0.00 | 0.00 | 0.00 | 100 | 1012.8 |
| 20260902085700 | 80 | 300 | 0.0 | 4.0 | 0.00 | 0.00 | 0.00 | 100 | 1012.8 |
| 20260902085501 | 80 | 300 | 0.0 | 4.0 | 0.00 | 0.00 | 0.00 | 100 | 1012.8 |
| 20260902085358 | 80 | 300 | 0.0 | 4.0 | 0.00 | 0.00 | 0.00 | 100 | 1012.9 |
| 20260902085258 | 80 | 300 | 0.0 | 4.0 | 0.00 | 0.00 | 0.00 | 100 | 1012.9 |
| 20260902085100 | 80 | 354 | 0.0 | 2.0 | 0.00 | 0.00 | 0.00 | 100 | 1012.8 |
| 20260902085000 | 80 | 354 | 0.0 | 2.0 | 0.00 | 0.00 | 0.00 | 100 | 1012.8 |
| 20260902084858 | 80 | 354 | 0.0 | 2.0 | 0.00 | 0.00 | 0.00 | 100 | 1012.8 |
| 20260902084558 | 80 | 354 | 0.0 | 2.0 | 0.00 | 0.00 | 0.00 | 100 | 1012.8 |
| 20260902084500 | 80 | 354 | 0.0 | 2.0 | 0.00 | 0.00 | 0.00 | 100 | 1012.9 |
| 20260902084400 | 80 | 354 | 0.0 | 1.0 | 0.00 | 0.00 | 0.00 | 100 | 1012.9 |
| 20260902084158 | 80 | 354 | 0.0 | 1.0 | 0.00 | 0.00 | 0.00 | 100 | 1012.9 |
| 20260902084058 | 80 | 354 | 0.0 | 1.0 | 0.00 | 0.00 | 0.00 | 100 | 1012.9 |
| 20260902084001 | 80 | 354 | 0.0 | 1.0 | 0.00 | 0.00 | 0.00 | 100 | 1012.9 |
| 20260902083900 | 80 | 354 | 0.0 | 1.0 | 0.00 | 0.00 | 0.00 | 100 | 1012.9 |
| 20260902083759 | 80 | 354 | 0.0 | 0.0 | 0.00 | 0.00 | 0.00 | 100 | 1013.0 |
| 20260902083658 | 80 | 354 | 0.0 | 0.0 | 0.00 | 0.00 | 0.00 | 100 | 1013.0 |
| 20260902083600 | 80 | 354 | 0.0 | 0.0 | 0.00 | 0.00 | 0.00 | 100 | 1013.0 |
| 20260902083500 | 80 | 354 | 0.0 | 0.0 | 0.00 | 0.00 | 0.00 | 100 | 1013.0 |
| 20260902083358 | 80 | 354 | 0.0 | 0.0 | 0.00 | 0.00 | 0.00 | 100 | 1013.0 |
| 20260902083200 | 80 | 354 | 0.0 | 3.0 | 0.00 | 0.00 | 0.00 | 100 | 1013.0 |
| 20260902083100 | 80 | 354 | 0.0 | 3.0 | 0.00 | 0.00 | 0.00 | 100 | 1013.0 |
| 20260902083000 | 80 | 354 | 0.0 | 3.0 | 0.00 | 0.00 | 0.00 | 100 | 1013.0 |
| 20260902082858 | 80 | 354 | 0.0 | 3.0 | 0.00 | 0.00 | 0.00 | 100 | 1013.0 |
| 20260902082801 | 80 | 354 | 0.0 | 3.0 | 0.00 | 0.00 | 0.00 | 100 | 1013.0 |
| 20260902082659 | 80 | 354 | 0.0 | 3.0 | 0.00 | 0.00 | 0.00 | 100 | 1013.0 |
| 20260902082559 | 80 | 354 | 0.0 | 3.0 | 0.00 | 0.00 | 0.00 | 100 | 1013.1 |
| 20260902082458 | 80 | 354 | 0.0 | 3.0 | 0.00 | 0.00 | 0.00 | 100 | 1013.1 |
| 20260902082401 | 80 | 354 | 0.0 | 1.0 | 0.00 | 0.00 | 0.00 | 100 | 1013.1 |
| 20260902082201 | 80 | 354 | 0.0 | 1.0 | 0.00 | 0.00 | 0.00 | 100 | 1013.1 |
| 20260902082058 | 80 | 354 | 1.0 | 1.0 | 0.00 | 0.00 | 0.00 | 100 | 1013.2 |
| 20260902081858 | 80 | 354 | 0.0 | 1.0 | 0.00 | 0.00 | 0.00 | 100 | 1013.1 |
| 20260902081758 | 80 | 354 | 0.0 | 1.0 | 0.00 | 0.00 | 0.00 | 1 | 1013.1 |
| 20260902081658 | 80 | 354 | 0.0 | 1.0 | 0.00 | 0.00 | 0.00 | 1 | 1013.1 |
| 20260902081558 | 80 | 354 | 0.0 | 1.0 | 0.00 | 0.00 | 0.00 | 1 | 1013.1 |
| 20260902081500 | 80 | 354 | 0.0 | 1.0 | 0.00 | 0.00 | 0.00 | 1 | 1013.1 |
| 20260902081400 | 80 | 354 | 0.0 | 1.0 | 0.00 | 0.00 | 0.00 | 2 | 1013.1 |
| 20260902081158 | 80 | 354 | 0.0 | 1.0 | 0.00 | 0.00 | 0.00 | 2 | 1013.1 |
| 20260902081059 | 80 | 354 | 0.0 | 1.0 | 0.00 | 0.00 | 0.00 | 3 | 1013.1 |
| 20260902081002 | 80 | 354 | 0.0 | 1.0 | 0.00 | 0.00 | 0.00 | 3 | 1013.1 |
| 20260902080858 | 80 | 354 | 0.0 | 1.0 | 0.00 | 0.00 | 0.00 | 3 | 1013.0 |
| 20260902080801 | 80 | 354 | 0.0 | 1.0 | 0.00 | 0.00 | 0.00 | 3 | 1013.1 |
| 20260902080700 | 80 | 354 | 0.0 | 1.0 | 0.00 | 0.00 | 0.00 | 3 | 1013.0 |
| 20260902080600 | 80 | 354 | 0.0 | 1.0 | 0.00 | 0.00 | 0.00 | 4 | 1013.1 |
| 20260902080458 | 80 | 354 | 0.0 | 0.0 | 0.00 | 0.00 | 0.00 | 4 | 1013.1 |
| 20260902080300 | 80 | 354 | 0.0 | 0.0 | 0.00 | 0.00 | 0.00 | 4 | 1013.1 |
| 20260902080200 | 80 | 354 | 0.0 | 2.0 | 0.00 | 0.00 | 0.00 | 4 | 1013.0 |
| 20260902080058 | 80 | 354 | 0.0 | 2.0 | 0.00 | 0.00 | 0.00 | 4 | 1013.1 |
| 20260902080006 | 80 | 354 | 0.0 | 2.0 | 0.00 | 0.00 | 0.00 | 4 | 1013.1 |
| 20260902075859 | 80 | 354 | 0.0 | 2.0 | 0.00 | 0.00 | 0.00 | 5 | 1013.0 |
| 20260902075757 | 80 | 354 | 0.0 | 2.0 | 0.00 | 0.00 | 0.00 | 5 | 1013.0 |
| 20260902075558 | 80 | 354 | 0.0 | 2.0 | 0.00 | 0.00 | 0.00 | 5 | 1013.0 |
| 20260902075459 | 80 | 354 | 0.0 | 2.0 | 0.00 | 0.00 | 0.00 | 5 | 1013.0 |
| 20260902075257 | 80 | 18 | 0.0 | 0.0 | 0.00 | 0.00 | 0.00 | 6 | 1013.0 |
| 20260902075157 | 80 | 18 | 0.0 | 0.0 | 0.00 | 0.00 | 0.00 | 6 | 1013.0 |
| 20260902075059 | 80 | 18 | 0.0 | 0.0 | 0.00 | 0.00 | 0.00 | 6 | 1013.1 |
| 20260902075000 | 80 | 18 | 0.0 | 0.0 | 0.00 | 0.00 | 0.00 | 6 | 1013.1 |
| 20260902074856 | 80 | 18 | 0.0 | 0.0 | 0.00 | 0.00 | 0.00 | 6 | 1013.1 |
| 20260902074757 | 80 | 18 | 0.0 | 1.0 | 0.00 | 0.00 | 0.00 | 6 | 1013.1 |
| 20260902074659 | 80 | 18 | 0.0 | 1.0 | 0.00 | 0.00 | 0.00 | 6 | 1013.1 |
| 20260902074457 | 80 | 18 | 0.0 | 1.0 | 0.00 | 0.00 | 0.00 | 7 | 1013.1 |
| 20260902074358 | 80 | 18 | 0.0 | 1.0 | 0.00 | 0.00 | 0.00 | 7 | 1013.1 |
| 20260902074259 | 80 | 18 | 0.0 | 1.0 | 0.00 | 0.00 | 0.00 | 7 | 1013.1 |
| 20260902074201 | 80 | 18 | 0.0 | 1.0 | 0.00 | 0.00 | 0.00 | 7 | 1013.1 |
| 20260902074057 | 80 | 18 | 0.0 | 1.0 | 0.00 | 0.00 | 0.00 | 7 | 1013.1 |
| 20260902073959 | 80 | 18 | 0.0 | 1.0 | 0.00 | 0.00 | 0.00 | 7 | 1013.0 |
| 20260902073856 | 80 | 18 | 0.0 | 2.0 | 0.00 | 0.00 | 0.00 | 7 | 1013.1 |
| 20260902073800 | 80 | 18 | 0.0 | 2.0 | 0.00 | 0.00 | 0.00 | 7 | 1013.1 |
| 20260902073559 | 80 | 18 | 0.0 | 2.0 | 0.00 | 0.00 | 0.00 | 7 | 1013.2 |
| 20260902073459 | 80 | 18 | 0.0 | 2.0 | 0.00 | 0.00 | 0.00 | 7 | 1013.1 |
| 20260902073359 | 80 | 18 | 0.0 | 2.0 | 0.00 | 0.00 | 0.00 | 7 | 1013.2 |
| 20260902073256 | 80 | 18 | 0.0 | 2.0 | 0.00 | 0.00 | 0.00 | 7 | 1013.2 |
| 20260902073157 | 80 | 18 | 0.0 | 2.0 | 0.00 | 0.00 | 0.00 | 7 | 1013.2 |
| 20260902073058 | 80 | 18 | 0.0 | 2.0 | 0.00 | 0.00 | 0.00 | 7 | 1013.2 |
| 20260902072857 | 80 | 18 | 0.0 | 2.0 | 0.00 | 0.00 | 0.00 | 8 | 1013.2 |
| 20260902072758 | 80 | 18 | 0.0 | 2.0 | 0.00 | 0.00 | 0.00 | 8 | 1013.2 |
| 20260902072659 | 80 | 18 | 0.0 | 2.0 | 0.00 | 0.00 | 0.00 | 8 | 1013.2 |
| 20260902072559 | 81 | 18 | 0.0 | 2.0 | 0.00 | 0.00 | 0.00 | 8 | 1013.3 |
| 20260902072457 | 81 | 18 | 0.0 | 2.0 | 0.00 | 0.00 | 0.00 | 7 | 1013.2 |
| 20260902072358 | 81 | 18 | 0.0 | 2.0 | 0.00 | 0.00 | 0.00 | 7 | 1013.2 |
| 20260902072259 | 81 | 18 | 0.0 | 2.0 | 0.00 | 0.00 | 0.00 | 7 | 1013.2 |
| 20260902072159 | 81 | 18 | 0.0 | 2.0 | 0.00 | 0.00 | 0.00 | 8 | 1013.3 |
| 20260902072057 | 81 | 18 | 1.0 | 1.0 | 0.00 | 0.00 | 0.00 | 9 | 1013.3 |
| 20260902071858 | 81 | 18 | 0.0 | 2.0 | 0.00 | 0.00 | 0.00 | 9 | 1013.2 |
| 20260902071759 | 81 | 18 | 0.0 | 2.0 | 0.00 | 0.00 | 0.00 | 9 | 1013.2 |
| 20260902071557 | 81 | 18 | 0.0 | 2.0 | 0.00 | 0.00 | 0.00 | 10 | 1013.3 |
| 20260902071457 | 81 | 18 | 0.0 | 3.0 | 0.00 | 0.00 | 0.00 | 9 | 1013.2 |
| 20260902071359 | 81 | 18 | 0.0 | 3.0 | 0.00 | 0.00 | 0.00 | 9 | 1013.2 |
| 20260902071259 | 81 | 18 | 0.0 | 3.0 | 0.00 | 0.00 | 0.00 | 9 | 1013.2 |
| 20260902071157 | 81 | 18 | 0.0 | 3.0 | 0.00 | 0.00 | 0.00 | 9 | 1013.2 |
| 20260902071059 | 81 | 18 | 0.0 | 3.0 | 0.00 | 0.00 | 0.00 | 9 | 1013.2 |
| 20260902070859 | 81 | 18 | 0.0 | 3.0 | 0.00 | 0.00 | 0.00 | 9 | 1013.2 |
| 20260902070800 | 81 | 18 | 0.0 | 3.0 | 0.00 | 0.00 | 0.00 | 9 | 1013.2 |
| 20260902070657 | 81 | 18 | 0.0 | 3.0 | 0.00 | 0.00 | 0.00 | 9 | 1013.1 |
| 20260902070559 | 81 | 18 | 1.0 | 3.0 | 0.00 | 0.00 | 0.00 | 10 | 1013.2 |
| 20260902070357 | 81 | 18 | 0.0 | 3.0 | 0.00 | 0.00 | 0.00 | 9 | 1013.2 |
| 20260902070259 | 81 | 18 | 2.0 | 3.0 | 0.00 | 0.00 | 0.00 | 10 | 1013.2 |
| 20260902070159 | 81 | 18 | 0.0 | 2.0 | 0.00 | 0.00 | 0.00 | 11 | 1013.1 |
| 20260902070059 | 81 | 18 | 0.0 | 2.0 | 0.00 | 0.00 | 0.00 | 11 | 1013.2 |
| 20260902070007 | 81 | 18 | 0.0 | 2.0 | 0.00 | 0.00 | 0.00 | 11 | 1013.2 |
| 20260902065858 | 81 | 18 | 0.0 | 2.0 | 0.00 | 0.00 | 0.00 | 11 | 1013.2 |
| 20260902065800 | 81 | 18 | 0.0 | 2.0 | 0.00 | 0.00 | 0.00 | 11 | 1013.2 |
| 20260902065700 | 81 | 18 | 1.0 | 2.0 | 0.00 | 0.00 | 0.00 | 11 | 1013.2 |
| 20260902065558 | 81 | 19 | 1.0 | 1.0 | 0.00 | 0.00 | 0.00 | 12 | 1013.1 |
| 20260902065458 | 81 | 19 | 0.0 | 1.0 | 0.00 | 0.00 | 0.00 | 12 | 1013.1 |
| 20260902065358 | 81 | 19 | 0.0 | 1.0 | 0.00 | 0.00 | 0.00 | 12 | 1013.1 |
| 20260902065259 | 81 | 19 | 0.0 | 1.0 | 0.00 | 0.00 | 0.00 | 12 | 1013.1 |
| 20260902065200 | 81 | 19 | 0.0 | 1.0 | 0.00 | 0.00 | 0.00 | 14 | 1013.1 |
| 20260902065058 | 81 | 19 | 0.0 | 1.0 | 0.00 | 0.00 | 0.00 | 14 | 1013.0 |
| 20260902064900 | 81 | 19 | 0.0 | 2.0 | 0.00 | 0.00 | 0.00 | 14 | 1013.0 |
| 20260902064800 | 81 | 19 | 1.0 | 2.0 | 0.00 | 0.00 | 0.00 | 15 | 1013.0 |
| 20260902064658 | 81 | 19 | 0.0 | 2.0 | 0.00 | 0.00 | 0.00 | 15 | 1013.0 |
| 20260902064558 | 81 | 19 | 0.0 | 2.0 | 0.00 | 0.00 | 0.00 | 15 | 1013.0 |
| 20260902064500 | 81 | 19 | 0.0 | 2.0 | 0.00 | 0.00 | 0.00 | 14 | 1013.0 |
| 20260902064400 | 81 | 19 | 0.0 | 2.0 | 0.00 | 0.00 | 0.00 | 14 | 1013.0 |
| 20260902064258 | 81 | 19 | 0.0 | 2.0 | 0.00 | 0.00 | 0.00 | 14 | 1013.0 |
| 20260902064159 | 81 | 19 | 1.0 | 1.0 | 0.00 | 0.00 | 0.00 | 16 | 1013.0 |
| 20260902064100 | 81 | 19 | 1.0 | 1.0 | 0.00 | 0.00 | 0.00 | 16 | 1013.0 |
| 20260902063857 | 81 | 19 | 0.0 | 1.0 | 0.00 | 0.00 | 0.00 | 16 | 1013.0 |
| 20260902063659 | 81 | 19 | 0.0 | 1.0 | 0.00 | 0.00 | 0.00 | 18 | 1013.0 |
| 20260902063600 | 81 | 18 | 0.0 | 1.0 | 0.00 | 0.00 | 0.00 | 18 | 1013.0 |
| 20260902063500 | 81 | 18 | 0.0 | 1.0 | 0.00 | 0.00 | 0.00 | 18 | 1013.0 |
| 20260902063358 | 81 | 18 | 0.0 | 1.0 | 0.00 | 0.00 | 0.00 | 18 | 1013.0 |
| 20260902063300 | 81 | 18 | 0.0 | 1.0 | 0.00 | 0.00 | 0.00 | 18 | 1013.0 |
| 20260902063200 | 81 | 18 | 0.0 | 1.0 | 0.00 | 0.00 | 0.00 | 18 | 1013.0 |
| 20260902063058 | 81 | 18 | 0.0 | 1.0 | 0.00 | 0.00 | 0.00 | 18 | 1013.0 |
| 20260902063000 | 81 | 18 | 0.0 | 1.0 | 0.00 | 0.00 | 0.00 | 18 | 1013.0 |
| 20260902062859 | 81 | 18 | 0.0 | 1.0 | 0.00 | 0.00 | 0.00 | 18 | 1013.0 |
| 20260902062800 | 81 | 18 | 0.0 | 2.0 | 0.00 | 0.00 | 0.00 | 18 | 1013.0 |
| 20260902062658 | 81 | 18 | 0.0 | 2.0 | 0.00 | 0.00 | 0.00 | 19 | 1013.0 |
| 20260902062558 | 81 | 18 | 0.0 | 2.0 | 0.00 | 0.00 | 0.00 | 18 | 1013.0 |
| 20260902062458 | 81 | 18 | 0.0 | 2.0 | 0.00 | 0.00 | 0.00 | 19 | 1013.0 |
| 20260902062400 | 81 | 18 | 0.0 | 2.0 | 0.00 | 0.00 | 0.00 | 19 | 1013.0 |
| 20260902062300 | 81 | 18 | 0.0 | 2.0 | 0.00 | 0.00 | 0.00 | 19 | 1013.0 |
| 20260902062158 | 81 | 18 | 1.0 | 2.0 | 0.00 | 0.00 | 0.00 | 19 | 1013.0 |
| 20260902062002 | 81 | 18 | 0.0 | 1.0 | 0.00 | 0.00 | 0.00 | 19 | 1013.0 |
| 20260902061859 | 81 | 18 | 0.0 | 1.0 | 0.00 | 0.00 | 0.00 | 20 | 1013.0 |
| 20260902061758 | 81 | 18 | 0.0 | 1.0 | 0.00 | 0.00 | 0.00 | 19 | 1013.0 |
| 20260902061658 | 81 | 18 | 0.0 | 1.0 | 0.00 | 0.00 | 0.00 | 19 | 1013.0 |
| 20260902061601 | 81 | 18 | 1.0 | 1.0 | 0.00 | 0.00 | 0.00 | 20 | 1013.0 |
| 20260902061500 | 81 | 19 | 0.0 | 1.0 | 0.00 | 0.00 | 0.00 | 20 | 1013.1 |
| 20260902061358 | 81 | 19 | 0.0 | 3.0 | 0.00 | 0.00 | 0.00 | 21 | 1013.0 |
| 20260902061259 | 81 | 19 | 0.0 | 3.0 | 0.00 | 0.00 | 0.00 | 21 | 1013.0 |
| 20260902061200 | 81 | 19 | 0.0 | 3.0 | 0.00 | 0.00 | 0.00 | 21 | 1013.0 |
| 20260902061100 | 81 | 19 | 0.0 | 3.0 | 0.00 | 0.00 | 0.00 | 22 | 1013.0 |
| 20260902061000 | 81 | 19 | 0.0 | 3.0 | 0.00 | 0.00 | 0.00 | 23 | 1013.1 |
| 20260902060858 | 81 | 19 | 0.0 | 3.0 | 0.00 | 0.00 | 0.00 | 22 | 1013.1 |
| 20260902060800 | 81 | 19 | 0.0 | 3.0 | 0.00 | 0.00 | 0.00 | 22 | 1013.1 |
| 20260902060657 | 81 | 19 | 0.0 | 3.0 | 0.00 | 0.00 | 0.00 | 23 | 1013.1 |
| 20260902060458 | 81 | 27 | 0.0 | 3.0 | 0.00 | 0.00 | 0.00 | 24 | 1013.1 |
| 20260902060400 | 81 | 23 | 0.0 | 0.0 | 0.00 | 0.00 | 0.00 | 24 | 1013.1 |
| 20260902060300 | 81 | 23 | 0.0 | 0.0 | 0.00 | 0.00 | 0.00 | 25 | 1013.2 |
| 20260902060158 | 81 | 23 | 0.0 | 0.0 | 0.00 | 0.00 | 0.00 | 25 | 1013.1 |
| 20260902060058 | 81 | 23 | 0.0 | 0.0 | 0.00 | 0.00 | 0.00 | 25 | 1013.1 |
| 20260902060004 | 81 | 23 | 0.0 | 0.0 | 0.00 | 0.00 | 0.00 | 25 | 1013.1 |
| 20260902055900 | 81 | 23 | 0.0 | 0.0 | 0.00 | 0.00 | 0.00 | 27 | 1013.2 |
| 20260902055759 | 81 | 23 | 0.0 | 0.0 | 0.00 | 0.00 | 0.00 | 28 | 1013.2 |
| 20260902055658 | 81 | 23 | 0.0 | 0.0 | 0.00 | 0.00 | 0.00 | 28 | 1013.2 |
| 20260902055559 | 81 | 23 | 0.0 | 0.0 | 0.00 | 0.00 | 0.00 | 30 | 1013.2 |
| 20260902055458 | 81 | 23 | 0.0 | 0.0 | 0.00 | 0.00 | 0.00 | 31 | 1013.2 |
| 20260902055400 | 81 | 23 | 0.0 | 0.0 | 0.00 | 0.00 | 0.00 | 31 | 1013.3 |
| 20260902055258 | 81 | 23 | 0.0 | 0.0 | 0.00 | 0.00 | 0.00 | 32 | 1013.2 |
| 20260902055158 | 81 | 23 | 0.0 | 0.0 | 0.00 | 0.00 | 0.00 | 33 | 1013.2 |
| 20260902055001 | 81 | 23 | 0.0 | 0.0 | 0.00 | 0.00 | 0.00 | 34 | 1013.1 |
| 20260902054859 | 81 | 23 | 0.0 | 0.0 | 0.00 | 0.00 | 0.00 | 33 | 1013.1 |
| 20260902054758 | 81 | 23 | 0.0 | 0.0 | 0.00 | 0.00 | 0.00 | 35 | 1013.1 |
| 20260902054659 | 81 | 23 | 0.0 | 0.0 | 0.00 | 0.00 | 0.00 | 35 | 1013.1 |
| 20260902054458 | 81 | 23 | 0.0 | 0.0 | 0.00 | 0.00 | 0.00 | 38 | 1013.1 |
| 20260902054359 | 81 | 23 | 0.0 | 0.0 | 0.00 | 0.00 | 0.00 | 38 | 1013.1 |
| 20260902054200 | 81 | 23 | 0.0 | 0.0 | 0.00 | 0.00 | 0.00 | 38 | 1013.1 |
| 20260902054058 | 81 | 23 | 0.0 | 0.0 | 0.00 | 0.00 | 0.00 | 39 | 1013.1 |
| 20260902054000 | 81 | 23 | 0.0 | 0.0 | 0.00 | 0.00 | 0.00 | 40 | 1013.1 |
| 20260902053858 | 81 | 23 | 0.0 | 0.0 | 0.00 | 0.00 | 0.00 | 39 | 1013.1 |
| 20260902053658 | 81 | 23 | 0.0 | 0.0 | 0.00 | 0.00 | 0.00 | 42 | 1013.2 |
| 20260902053600 | 81 | 23 | 0.0 | 0.0 | 0.00 | 0.00 | 0.00 | 43 | 1013.2 |
| 20260902053500 | 81 | 23 | 0.0 | 0.0 | 0.00 | 0.00 | 0.00 | 43 | 1013.2 |
| 20260902053301 | 80 | 23 | 0.0 | 0.0 | 0.00 | 0.00 | 0.00 | 44 | 1013.2 |
| 20260902053158 | 80 | 23 | 0.0 | 0.0 | 0.00 | 0.00 | 0.00 | 44 | 1013.3 |
| 20260902053057 | 80 | 23 | 0.0 | 0.0 | 0.00 | 0.00 | 0.00 | 45 | 1013.3 |
| 20260902053002 | 80 | 23 | 0.0 | 0.0 | 0.00 | 0.00 | 0.00 | 45 | 1013.3 |
| 20260902052859 | 80 | 23 | 0.0 | 0.0 | 0.00 | 0.00 | 0.00 | 45 | 1013.3 |
| 20260902052658 | 80 | 23 | 0.0 | 0.0 | 0.00 | 0.00 | 0.00 | 46 | 1013.3 |
| 20260902052500 | 80 | 23 | 0.0 | 0.0 | 0.00 | 0.00 | 0.00 | 46 | 1013.3 |
| 20260902052400 | 80 | 23 | 0.0 | 0.0 | 0.00 | 0.00 | 0.00 | 46 | 1013.3 |
| 20260902052300 | 80 | 23 | 0.0 | 0.0 | 0.00 | 0.00 | 0.00 | 47 | 1013.3 |
| 20260902052159 | 80 | 23 | 0.0 | 0.0 | 0.00 | 0.00 | 0.00 | 48 | 1013.2 |
| 20260902052059 | 80 | 23 | 0.0 | 0.0 | 0.00 | 0.00 | 0.00 | 48 | 1013.2 |
| 20260902051859 | 80 | 23 | 0.0 | 0.0 | 0.00 | 0.00 | 0.00 | 48 | 1013.2 |
| 20260902051800 | 80 | 23 | 0.0 | 0.0 | 0.00 | 0.00 | 0.00 | 48 | 1013.2 |
| 20260902051659 | 80 | 23 | 0.0 | 0.0 | 0.00 | 0.00 | 0.00 | 48 | 1013.2 |
| 20260902051600 | 80 | 23 | 0.0 | 0.0 | 0.00 | 0.00 | 0.00 | 49 | 1013.2 |
| 20260902051458 | 80 | 23 | 0.0 | 0.0 | 0.00 | 0.00 | 0.00 | 49 | 1013.2 |
| 20260902051259 | 80 | 23 | 0.0 | 0.0 | 0.00 | 0.00 | 0.00 | 50 | 1013.2 |
| 20260902051200 | 80 | 23 | 0.0 | 0.0 | 0.00 | 0.00 | 0.00 | 50 | 1013.2 |
| 20260902051059 | 80 | 23 | 0.0 | 0.0 | 0.00 | 0.00 | 0.00 | 50 | 1013.2 |
| 20260902051000 | 80 | 23 | 0.0 | 0.0 | 0.00 | 0.00 | 0.00 | 50 | 1013.2 |
| 20260902050800 | 80 | 23 | 0.0 | 0.0 | 0.00 | 0.00 | 0.00 | 50 | 1013.2 |
| 20260902050459 | 80 | 23 | 0.0 | 0.0 | 0.00 | 0.00 | 0.00 | 50 | 1013.3 |
| 20260902050400 | 80 | 23 | 0.0 | 0.0 | 0.00 | 0.00 | 0.00 | 50 | 1013.3 |
| 20260902050258 | 80 | 23 | 0.0 | 0.0 | 0.00 | 0.00 | 0.00 | 50 | 1013.3 |
| 20260902050008 | 80 | 23 | 0.0 | 0.0 | 0.00 | 0.00 | 0.00 | 50 | 1013.2 |
| 20260902045900 | 80 | 23 | 0.0 | 0.0 | 0.00 | 0.00 | 0.00 | 50 | 1013.3 |
| 20260902045601 | 80 | 23 | 0.0 | 0.0 | 0.00 | 0.00 | 0.00 | 50 | 1013.3 |
| 20260902045500 | 80 | 23 | 0.0 | 0.0 | 0.00 | 0.00 | 0.00 | 51 | 1013.4 |
| 20260902045258 | 80 | 23 | 0.0 | 0.0 | 0.00 | 0.00 | 0.00 | 51 | 1013.4 |
| 20260902045100 | 80 | 23 | 0.0 | 0.0 | 0.00 | 0.00 | 0.00 | 51 | 1013.4 |
| 20260902045001 | 81 | 23 | 0.0 | 0.0 | 0.00 | 0.00 | 0.00 | 51 | 1013.4 |
| 20260902044900 | 81 | 23 | 0.0 | 0.0 | 0.00 | 0.00 | 0.00 | 51 | 1013.4 |
| 20260902044800 | 81 | 23 | 0.0 | 0.0 | 0.00 | 0.00 | 0.00 | 51 | 1013.4 |
| 20260902044659 | 81 | 23 | 0.0 | 0.0 | 0.00 | 0.00 | 0.00 | 51 | 1013.4 |
| 20260902044559 | 81 | 23 | 0.0 | 0.0 | 0.00 | 0.00 | 0.00 | 51 | 1013.4 |
| 20260902044500 | 81 | 23 | 0.0 | 0.0 | 0.00 | 0.00 | 0.00 | 51 | 1013.4 |
| 20260902044259 | 81 | 23 | 0.0 | 0.0 | 0.00 | 0.00 | 0.00 | 51 | 1013.4 |
| 20260902044158 | 81 | 23 | 0.0 | 0.0 | 0.00 | 0.00 | 0.00 | 51 | 1013.4 |
| 20260902044100 | 81 | 23 | 0.0 | 0.0 | 0.00 | 0.00 | 0.00 | 51 | 1013.4 |
| 20260902044001 | 81 | 23 | 0.0 | 0.0 | 0.00 | 0.00 | 0.00 | 51 | 1013.3 |
| 20260902043859 | 81 | 23 | 0.0 | 0.0 | 0.00 | 0.00 | 0.00 | 51 | 1013.3 |
| 20260902043800 | 81 | 23 | 0.0 | 0.0 | 0.00 | 0.00 | 0.00 | 50 | 1013.3 |
| 20260902043659 | 81 | 23 | 0.0 | 0.0 | 0.00 | 0.00 | 0.00 | 50 | 1013.3 |
| 20260902043600 | 81 | 23 | 0.0 | 0.0 | 0.00 | 0.00 | 0.00 | 50 | 1013.3 |
| 20260902043459 | 81 | 23 | 0.0 | 0.0 | 0.00 | 0.00 | 0.00 | 51 | 1013.3 |
| 20260902043359 | 81 | 23 | 0.0 | 0.0 | 0.00 | 0.00 | 0.00 | 51 | 1013.3 |
| 20260902043300 | 81 | 23 | 0.0 | 0.0 | 0.00 | 0.00 | 0.00 | 50 | 1013.2 |
| 20260902043200 | 81 | 23 | 0.0 | 0.0 | 0.00 | 0.00 | 0.00 | 50 | 1013.3 |
| 20260902043058 | 81 | 23 | 0.0 | 0.0 | 0.00 | 0.00 | 0.00 | 50 | 1013.3 |
| 20260902043001 | 81 | 23 | 0.0 | 0.0 | 0.00 | 0.00 | 0.00 | 50 | 1013.2 |
| 20260902042859 | 81 | 23 | 0.0 | 0.0 | 0.00 | 0.00 | 0.00 | 50 | 1013.2 |
| 20260902042758 | 81 | 23 | 0.0 | 0.0 | 0.00 | 0.00 | 0.00 | 50 | 1013.2 |
| 20260902042559 | 81 | 23 | 0.0 | 0.0 | 0.00 | 0.00 | 0.00 | 50 | 1013.2 |
| 20260902042459 | 81 | 23 | 0.0 | 0.0 | 0.00 | 0.00 | 0.00 | 50 | 1013.2 |
| 20260902042400 | 81 | 23 | 0.0 | 0.0 | 0.00 | 0.00 | 0.00 | 50 | 1013.2 |
| 20260902042258 | 81 | 23 | 0.0 | 0.0 | 0.00 | 0.00 | 0.00 | 50 | 1013.2 |
| 20260902042059 | 81 | 23 | 0.0 | 0.0 | 0.00 | 0.00 | 0.00 | 50 | 1013.2 |
| 20260902041859 | 81 | 23 | 0.0 | 0.0 | 0.00 | 0.00 | 0.00 | 50 | 1013.2 |
| 20260902041800 | 81 | 23 | 0.0 | 0.0 | 0.00 | 0.00 | 0.00 | 50 | 1013.3 |
| 20260902041700 | 81 | 23 | 0.0 | 0.0 | 0.00 | 0.00 | 0.00 | 50 | 1013.3 |
| 20260902041558 | 81 | 23 | 0.0 | 0.0 | 0.00 | 0.00 | 0.00 | 50 | 1013.3 |
| 20260902041500 | 81 | 23 | 0.0 | 0.0 | 0.00 | 0.00 | 0.00 | 50 | 1013.3 |
| 20260902041358 | 81 | 23 | 0.0 | 0.0 | 0.00 | 0.00 | 0.00 | 50 | 1013.2 |
| 20260902041300 | 81 | 23 | 0.0 | 0.0 | 0.00 | 0.00 | 0.00 | 50 | 1013.3 |
| 20260902041200 | 81 | 23 | 0.0 | 0.0 | 0.00 | 0.00 | 0.00 | 50 | 1013.2 |
| 20260902041057 | 81 | 23 | 0.0 | 0.0 | 0.00 | 0.00 | 0.00 | 50 | 1013.3 |
| 20260902040959 | 81 | 23 | 0.0 | 0.0 | 0.00 | 0.00 | 0.00 | 50 | 1013.3 |
| 20260902040900 | 81 | 23 | 0.0 | 0.0 | 0.00 | 0.00 | 0.00 | 50 | 1013.3 |
| 20260902040800 | 81 | 23 | 0.0 | 0.0 | 0.00 | 0.00 | 0.00 | 50 | 1013.3 |
| 20260902040703 | 81 | 23 | 0.0 | 0.0 | 0.00 | 0.00 | 0.00 | 50 | 1013.3 |
| 20260902040600 | 81 | 23 | 0.0 | 0.0 | 0.00 | 0.00 | 0.00 | 50 | 1013.3 |
| 20260902040500 | 81 | 23 | 0.0 | 0.0 | 0.00 | 0.00 | 0.00 | 51 | 1013.3 |
| 20260902040358 | 81 | 23 | 0.0 | 0.0 | 0.00 | 0.00 | 0.00 | 51 | 1013.3 |
| 20260902040258 | 81 | 23 | 0.0 | 0.0 | 0.00 | 0.00 | 0.00 | 51 | 1013.3 |
| 20260902040200 | 81 | 23 | 0.0 | 0.0 | 0.00 | 0.00 | 0.00 | 51 | 1013.3 |
| 20260902040058 | 81 | 23 | 0.0 | 0.0 | 0.00 | 0.00 | 0.00 | 51 | 1013.3 |
| 20260902040005 | 81 | 23 | 0.0 | 0.0 | 0.00 | 0.00 | 0.00 | 51 | 1013.3 |
| 20260902035659 | 81 | 23 | 0.0 | 0.0 | 0.00 | 0.00 | 0.00 | 51 | 1013.4 |
| 20260902035602 | 81 | 23 | 0.0 | 0.0 | 0.00 | 0.00 | 0.00 | 51 | 1013.4 |
| 20260902035502 | 81 | 23 | 0.0 | 0.0 | 0.00 | 0.00 | 0.00 | 51 | 1013.4 |
| 20260902035359 | 81 | 23 | 0.0 | 0.0 | 0.00 | 0.00 | 0.00 | 51 | 1013.4 |
| 20260902035259 | 81 | 23 | 0.0 | 0.0 | 0.00 | 0.00 | 0.00 | 51 | 1013.4 |
| 20260902035202 | 81 | 23 | 0.0 | 0.0 | 0.00 | 0.00 | 0.00 | 52 | 1013.4 |
| 20260902035058 | 81 | 23 | 0.0 | 0.0 | 0.00 | 0.00 | 0.00 | 52 | 1013.5 |
| 20260902035000 | 81 | 23 | 0.0 | 0.0 | 0.00 | 0.00 | 0.00 | 52 | 1013.5 |
| 20260902034659 | 81 | 23 | 0.0 | 0.0 | 0.00 | 0.00 | 0.00 | 52 | 1013.6 |
| 20260902034559 | 81 | 23 | 0.0 | 0.0 | 0.00 | 0.00 | 0.00 | 52 | 1013.5 |
| 20260902034500 | 81 | 23 | 0.0 | 0.0 | 0.00 | 0.00 | 0.00 | 53 | 1013.6 |
| 20260902034302 | 81 | 23 | 0.0 | 0.0 | 0.00 | 0.00 | 0.00 | 53 | 1013.6 |
| 20260902034059 | 81 | 23 | 0.0 | 0.0 | 0.00 | 0.00 | 0.00 | 53 | 1013.6 |
| 20260902034005 | 81 | 23 | 0.0 | 0.0 | 0.00 | 0.00 | 0.00 | 53 | 1013.6 |
| 20260902033905 | 81 | 23 | 0.0 | 0.0 | 0.00 | 0.00 | 0.00 | 54 | 1013.6 |
| 20260902033800 | 81 | 23 | 0.0 | 0.0 | 0.00 | 0.00 | 0.00 | 54 | 1013.6 |
| 20260902033659 | 81 | 23 | 0.0 | 0.0 | 0.00 | 0.00 | 0.00 | 54 | 1013.6 |
| 20260902033558 | 81 | 23 | 0.0 | 0.0 | 0.00 | 0.00 | 0.00 | 54 | 1013.6 |
| 20260902033502 | 81 | 23 | 0.0 | 0.0 | 0.00 | 0.00 | 0.00 | 54 | 1013.6 |
| 20260902033359 | 81 | 23 | 0.0 | 0.0 | 0.00 | 0.00 | 0.00 | 54 | 1013.5 |
| 20260902033200 | 81 | 23 | 0.0 | 0.0 | 0.00 | 0.00 | 0.00 | 53 | 1013.5 |
| 20260902033101 | 81 | 23 | 0.0 | 0.0 | 0.00 | 0.00 | 0.00 | 53 | 1013.5 |
| 20260902033000 | 81 | 23 | 0.0 | 0.0 | 0.00 | 0.00 | 0.00 | 53 | 1013.5 |
| 20260902032859 | 81 | 23 | 0.0 | 0.0 | 0.00 | 0.00 | 0.00 | 53 | 1013.5 |
| 20260902032802 | 81 | 23 | 0.0 | 0.0 | 0.00 | 0.00 | 0.00 | 54 | 1013.5 |
| 20260902032702 | 81 | 23 | 0.0 | 0.0 | 0.00 | 0.00 | 0.00 | 54 | 1013.5 |
| 20260902032559 | 81 | 23 | 0.0 | 0.0 | 0.00 | 0.00 | 0.00 | 54 | 1013.5 |
| 20260902032459 | 81 | 23 | 0.0 | 0.0 | 0.00 | 0.00 | 0.00 | 54 | 1013.5 |
| 20260902032359 | 81 | 23 | 0.0 | 0.0 | 0.00 | 0.00 | 0.00 | 54 | 1013.5 |
| 20260902031901 | 81 | 23 | 0.0 | 0.0 | 0.00 | 0.00 | 0.00 | 55 | 1013.4 |
| 20260902031759 | 81 | 23 | 0.0 | 0.0 | 0.00 | 0.00 | 0.00 | 55 | 1013.4 |
| 20260902031659 | 81 | 23 | 0.0 | 0.0 | 0.00 | 0.00 | 0.00 | 55 | 1013.4 |
| 20260902031600 | 81 | 23 | 0.0 | 0.0 | 0.00 | 0.00 | 0.00 | 56 | 1013.4 |
| 20260902031502 | 81 | 23 | 0.0 | 0.0 | 0.00 | 0.00 | 0.00 | 55 | 1013.4 |
| 20260902031402 | 81 | 23 | 0.0 | 0.0 | 0.00 | 0.00 | 0.00 | 56 | 1013.3 |
| 20260902031159 | 81 | 23 | 0.0 | 0.0 | 0.00 | 0.00 | 0.00 | 56 | 1013.3 |
| 20260902031102 | 81 | 23 | 0.0 | 0.0 | 0.00 | 0.00 | 0.00 | 56 | 1013.3 |
| 20260902031003 | 81 | 23 | 0.0 | 0.0 | 0.00 | 0.00 | 0.00 | 56 | 1013.3 |
| 20260902030858 | 81 | 23 | 0.0 | 0.0 | 0.00 | 0.00 | 0.00 | 56 | 1013.2 |
| 20260902030759 | 81 | 23 | 0.0 | 0.0 | 0.00 | 0.00 | 0.00 | 56 | 1013.2 |
| 20260902030701 | 81 | 23 | 0.0 | 0.0 | 0.00 | 0.00 | 0.00 | 56 | 1013.2 |
| 20260902030602 | 81 | 23 | 0.0 | 0.0 | 0.00 | 0.00 | 0.00 | 56 | 1013.1 |
| 20260902030359 | 81 | 23 | 0.0 | 0.0 | 0.00 | 0.00 | 0.00 | 56 | 1013.2 |
| 20260902030302 | 81 | 23 | 0.0 | 0.0 | 0.00 | 0.00 | 0.00 | 57 | 1013.2 |
| 20260902030058 | 81 | 23 | 0.0 | 0.0 | 0.00 | 0.00 | 0.00 | 56 | 1013.0 |
| 20260902030006 | 81 | 23 | 0.0 | 0.0 | 0.00 | 0.00 | 0.00 | 57 | 1013.0 |
| 20260902025857 | 81 | 23 | 0.0 | 0.0 | 0.00 | 0.00 | 0.00 | 57 | 1013.0 |
| 20260902025758 | 81 | 23 | 0.0 | 0.0 | 0.00 | 0.00 | 0.00 | 57 | 1013.0 |
| 20260902025657 | 82 | 23 | 0.0 | 0.0 | 0.00 | 0.00 | 0.00 | 56 | 1013.0 |
| 20260902025500 | 82 | 23 | 0.0 | 0.0 | 0.00 | 0.00 | 0.00 | 57 | 1013.0 |
| 20260902025400 | 82 | 23 | 0.0 | 0.0 | 0.00 | 0.00 | 0.00 | 57 | 1012.9 |
| 20260902025158 | 82 | 23 | 0.0 | 0.0 | 0.00 | 0.00 | 0.00 | 57 | 1012.9 |
| 20260902024959 | 82 | 23 | 0.0 | 0.0 | 0.00 | 0.00 | 0.00 | 57 | 1012.9 |
| 20260902024857 | 82 | 23 | 0.0 | 0.0 | 0.00 | 0.00 | 0.00 | 57 | 1012.9 |
| 20260902024700 | 82 | 23 | 0.0 | 0.0 | 0.00 | 0.00 | 0.00 | 58 | 1012.9 |
| 20260902024458 | 82 | 23 | 0.0 | 0.0 | 0.00 | 0.00 | 0.00 | 57 | 1012.8 |
| 20260902024359 | 82 | 23 | 0.0 | 0.0 | 0.00 | 0.00 | 0.00 | 57 | 1012.8 |
| 20260902024259 | 82 | 23 | 0.0 | 0.0 | 0.00 | 0.00 | 0.00 | 57 | 1012.8 |
| 20260902024200 | 82 | 23 | 0.0 | 0.0 | 0.00 | 0.00 | 0.00 | 57 | 1012.8 |
| 20260902024058 | 82 | 23 | 0.0 | 0.0 | 0.00 | 0.00 | 0.00 | 57 | 1012.8 |
| 20260902023959 | 82 | 23 | 0.0 | 0.0 | 0.00 | 0.00 | 0.00 | 58 | 1012.8 |
| 20260902023859 | 82 | 23 | 0.0 | 0.0 | 0.00 | 0.00 | 0.00 | 58 | 1012.8 |
| 20260902023800 | 82 | 23 | 0.0 | 0.0 | 0.00 | 0.00 | 0.00 | 58 | 1012.8 |
| 20260902023658 | 82 | 23 | 0.0 | 0.0 | 0.00 | 0.00 | 0.00 | 58 | 1012.8 |
| 20260902023558 | 82 | 23 | 0.0 | 0.0 | 0.00 | 0.00 | 0.00 | 58 | 1012.7 |
| 20260902023400 | 82 | 23 | 0.0 | 0.0 | 0.00 | 0.00 | 0.00 | 58 | 1012.7 |
| 20260902023257 | 82 | 23 | 0.0 | 0.0 | 0.00 | 0.00 | 0.00 | 58 | 1012.7 |
| 20260902023158 | 82 | 23 | 0.0 | 0.0 | 0.00 | 0.00 | 0.00 | 59 | 1012.6 |
| 20260902023059 | 82 | 23 | 0.0 | 0.0 | 0.00 | 0.00 | 0.00 | 59 | 1012.6 |
| 20260902023001 | 82 | 23 | 0.0 | 0.0 | 0.00 | 0.00 | 0.00 | 59 | 1012.6 |
| 20260902022758 | 82 | 23 | 0.0 | 0.0 | 0.00 | 0.00 | 0.00 | 59 | 1012.6 |
| 20260902022700 | 82 | 23 | 0.0 | 0.0 | 0.00 | 0.00 | 0.00 | 59 | 1012.6 |
| 20260902022600 | 82 | 23 | 0.0 | 0.0 | 0.00 | 0.00 | 0.00 | 59 | 1012.5 |
| 20260902022458 | 82 | 23 | 0.0 | 0.0 | 0.00 | 0.00 | 0.00 | 59 | 1012.5 |
| 20260902022358 | 82 | 23 | 0.0 | 0.0 | 0.00 | 0.00 | 0.00 | 59 | 1012.5 |
| 20260902022201 | 82 | 23 | 0.0 | 0.0 | 0.00 | 0.00 | 0.00 | 58 | 1012.5 |
| 20260902022058 | 82 | 23 | 0.0 | 0.0 | 0.00 | 0.00 | 0.00 | 58 | 1012.5 |
| 20260902022000 | 82 | 23 | 0.0 | 0.0 | 0.00 | 0.00 | 0.00 | 58 | 1012.6 |
| 20260902021858 | 82 | 23 | 0.0 | 0.0 | 0.00 | 0.00 | 0.00 | 58 | 1012.5 |
| 20260902021800 | 82 | 23 | 0.0 | 0.0 | 0.00 | 0.00 | 0.00 | 59 | 1012.6 |
| 20260902021659 | 82 | 23 | 0.0 | 0.0 | 0.00 | 0.00 | 0.00 | 59 | 1012.6 |
| 20260902021559 | 82 | 23 | 0.0 | 0.0 | 0.00 | 0.00 | 0.00 | 59 | 1012.5 |
| 20260902021458 | 82 | 23 | 0.0 | 0.0 | 0.00 | 0.00 | 0.00 | 60 | 1012.6 |
| 20260902021400 | 82 | 23 | 0.0 | 0.0 | 0.00 | 0.00 | 0.00 | 60 | 1012.6 |
| 20260902021257 | 82 | 23 | 0.0 | 0.0 | 0.00 | 0.00 | 0.00 | 60 | 1012.6 |
| 20260902021158 | 82 | 23 | 0.0 | 0.0 | 0.00 | 0.00 | 0.00 | 60 | 1012.6 |
| 20260902021058 | 83 | 23 | 0.0 | 0.0 | 0.00 | 0.00 | 0.00 | 60 | 1012.6 |
| 20260902021001 | 83 | 23 | 0.0 | 0.0 | 0.00 | 0.00 | 0.00 | 60 | 1012.6 |
| 20260902020859 | 83 | 23 | 0.0 | 0.0 | 0.00 | 0.00 | 0.00 | 60 | 1012.6 |
| 20260902020758 | 83 | 23 | 0.0 | 0.0 | 0.00 | 0.00 | 0.00 | 60 | 1012.5 |
| 20260902020659 | 83 | 23 | 0.0 | 0.0 | 0.00 | 0.00 | 0.00 | 60 | 1012.5 |
| 20260902020600 | 83 | 23 | 0.0 | 0.0 | 0.00 | 0.00 | 0.00 | 60 | 1012.5 |
| 20260902020500 | 83 | 23 | 0.0 | 0.0 | 0.00 | 0.00 | 0.00 | 60 | 1012.5 |
| 20260902020358 | 83 | 23 | 0.0 | 0.0 | 0.00 | 0.00 | 0.00 | 60 | 1012.4 |
| 20260902020258 | 83 | 23 | 0.0 | 0.0 | 0.00 | 0.00 | 0.00 | 60 | 1012.4 |
| 20260902020200 | 83 | 23 | 0.0 | 0.0 | 0.00 | 0.00 | 0.00 | 60 | 1012.4 |
| 20260902020100 | 83 | 23 | 0.0 | 0.0 | 0.00 | 0.00 | 0.00 | 60 | 1012.3 |
| 20260902015959 | 83 | 23 | 0.0 | 0.0 | 0.00 | 0.00 | 0.00 | 60 | 1012.3 |
| 20260902015800 | 83 | 23 | 0.0 | 0.0 | 0.00 | 0.00 | 0.00 | 60 | 1012.3 |
| 20260902015558 | 83 | 23 | 0.0 | 0.0 | 0.00 | 0.00 | 0.00 | 60 | 1012.2 |
| 20260902015458 | 83 | 23 | 0.0 | 0.0 | 0.00 | 0.00 | 0.00 | 60 | 1012.2 |
| 20260902015400 | 83 | 23 | 0.0 | 0.0 | 0.00 | 0.00 | 0.00 | 60 | 1012.2 |
| 20260902015300 | 83 | 23 | 0.0 | 0.0 | 0.00 | 0.00 | 0.00 | 60 | 1012.2 |
| 20260902015058 | 83 | 23 | 0.0 | 0.0 | 0.00 | 0.00 | 0.00 | 60 | 1012.2 |
| 20260902015001 | 83 | 23 | 0.0 | 1.0 | 0.00 | 0.00 | 0.00 | 60 | 1012.1 |
| 20260902014900 | 83 | 23 | 0.0 | 1.0 | 0.00 | 0.00 | 0.00 | 60 | 1012.1 |
| 20260902014758 | 83 | 23 | 0.0 | 1.0 | 0.00 | 0.00 | 0.00 | 60 | 1012.2 |
| 20260902014658 | 83 | 23 | 0.0 | 1.0 | 0.00 | 0.00 | 0.00 | 60 | 1012.2 |
| 20260902014600 | 83 | 23 | 0.0 | 1.0 | 0.00 | 0.00 | 0.00 | 60 | 1012.1 |
| 20260902014500 | 83 | 23 | 0.0 | 1.0 | 0.00 | 0.00 | 0.00 | 60 | 1012.1 |
| 20260902014358 | 83 | 23 | 0.0 | 1.0 | 0.00 | 0.00 | 0.00 | 60 | 1012.1 |
| 20260902014258 | 83 | 23 | 0.0 | 1.0 | 0.00 | 0.00 | 0.00 | 60 | 1012.0 |
| 20260902014203 | 83 | 23 | 0.0 | 1.0 | 0.00 | 0.00 | 0.00 | 60 | 1012.1 |
| 20260902014100 | 83 | 23 | 0.0 | 0.0 | 0.00 | 0.00 | 0.00 | 60 | 1012.0 |
| 20260902014000 | 83 | 23 | 0.0 | 0.0 | 0.00 | 0.00 | 0.00 | 60 | 1012.0 |
| 20260902013900 | 83 | 23 | 0.0 | 0.0 | 0.00 | 0.00 | 0.00 | 60 | 1012.0 |
| 20260902013659 | 83 | 23 | 0.0 | 0.0 | 0.00 | 0.00 | 0.00 | 60 | 1011.9 |
| 20260902013559 | 83 | 23 | 0.0 | 0.0 | 0.00 | 0.00 | 0.00 | 60 | 1012.0 |
| 20260902013458 | 83 | 23 | 0.0 | 0.0 | 0.00 | 0.00 | 0.00 | 60 | 1012.0 |
| 20260902013358 | 83 | 23 | 0.0 | 0.0 | 0.00 | 0.00 | 0.00 | 60 | 1011.9 |
| 20260902013300 | 83 | 23 | 0.0 | 0.0 | 0.00 | 0.00 | 0.00 | 61 | 1011.9 |
| 20260902013057 | 83 | 23 | 0.0 | 0.0 | 0.00 | 0.00 | 0.00 | 61 | 1011.8 |
| 20260902013001 | 83 | 23 | 0.0 | 0.0 | 0.00 | 0.00 | 0.00 | 61 | 1011.8 |
| 20260902012859 | 83 | 23 | 0.0 | 0.0 | 0.00 | 0.00 | 0.00 | 61 | 1011.8 |
| 20260902012800 | 83 | 23 | 0.0 | 0.0 | 0.00 | 0.00 | 0.00 | 60 | 1011.8 |
| 20260902012658 | 83 | 23 | 0.0 | 0.0 | 0.00 | 0.00 | 0.00 | 60 | 1011.7 |
| 20260902012558 | 83 | 23 | 0.0 | 0.0 | 0.00 | 0.00 | 0.00 | 60 | 1011.7 |
| 20260902012500 | 83 | 23 | 0.0 | 0.0 | 0.00 | 0.00 | 0.00 | 60 | 1011.7 |
| 20260902012400 | 83 | 23 | 0.0 | 0.0 | 0.00 | 0.00 | 0.00 | 61 | 1011.7 |
| 20260902012258 | 83 | 23 | 0.0 | 0.0 | 0.00 | 0.00 | 0.00 | 60 | 1011.7 |
| 20260902012158 | 83 | 23 | 0.0 | 0.0 | 0.00 | 0.00 | 0.00 | 61 | 1011.7 |
| 20260902012100 | 83 | 23 | 0.0 | 0.0 | 0.00 | 0.00 | 0.00 | 61 | 1011.8 |
| 20260902012001 | 83 | 23 | 0.0 | 0.0 | 0.00 | 0.00 | 0.00 | 61 | 1011.8 |
| 20260902011858 | 83 | 23 | 0.0 | 0.0 | 0.00 | 0.00 | 0.00 | 61 | 1011.7 |
| 20260902011659 | 84 | 23 | 0.0 | 0.0 | 0.00 | 0.00 | 0.00 | 61 | 1011.7 |
| 20260902011600 | 84 | 23 | 0.0 | 0.0 | 0.00 | 0.00 | 0.00 | 61 | 1011.7 |
| 20260902011358 | 84 | 23 | 0.0 | 2.0 | 0.00 | 0.00 | 0.00 | 61 | 1011.7 |
| 20260902011300 | 84 | 23 | 0.0 | 2.0 | 0.00 | 0.00 | 0.00 | 61 | 1011.7 |
| 20260902011200 | 84 | 23 | 0.0 | 2.0 | 0.00 | 0.00 | 0.00 | 61 | 1011.7 |
| 20260902011058 | 84 | 23 | 0.0 | 2.0 | 0.00 | 0.00 | 0.00 | 61 | 1011.7 |
| 20260902010959 | 84 | 23 | 0.0 | 2.0 | 0.00 | 0.00 | 0.00 | 61 | 1011.7 |
| 20260902010859 | 84 | 23 | 0.0 | 2.0 | 0.00 | 0.00 | 0.00 | 61 | 1011.8 |
| 20260902010801 | 84 | 23 | 0.0 | 2.0 | 0.00 | 0.00 | 0.00 | 61 | 1011.8 |
| 20260902010659 | 84 | 23 | 0.0 | 2.0 | 0.00 | 0.00 | 0.00 | 61 | 1011.7 |
| 20260902010558 | 84 | 23 | 0.0 | 0.0 | 0.00 | 0.00 | 0.00 | 61 | 1011.7 |
| 20260902010500 | 84 | 23 | 0.0 | 0.0 | 0.00 | 0.00 | 0.00 | 61 | 1011.7 |
| 20260902010359 | 84 | 23 | 0.0 | 0.0 | 0.00 | 0.00 | 0.00 | 61 | 1011.8 |
| 20260902010257 | 84 | 23 | 0.0 | 0.0 | 0.00 | 0.00 | 0.00 | 61 | 1011.7 |
| 20260902010158 | 84 | 23 | 0.0 | 0.0 | 0.00 | 0.00 | 0.00 | 61 | 1011.7 |
| 20260902010058 | 84 | 23 | 0.0 | 0.0 | 0.00 | 0.00 | 0.00 | 61 | 1011.8 |
| 20260902010006 | 84 | 23 | 0.0 | 0.0 | 0.00 | 0.00 | 0.00 | 61 | 1011.8 |
| 20260902005904 | 84 | 23 | 0.0 | 0.0 | 0.00 | 0.00 | 0.00 | 61 | 1011.8 |
| 20260902005759 | 84 | 23 | 0.0 | 0.0 | 0.00 | 0.00 | 0.00 | 61 | 1011.8 |
| 20260902005658 | 84 | 23 | 0.0 | 0.0 | 0.00 | 0.00 | 0.00 | 61 | 1011.8 |
| 20260902005559 | 84 | 23 | 0.0 | 0.0 | 0.00 | 0.00 | 0.00 | 61 | 1011.8 |
| 20260902005500 | 84 | 23 | 0.0 | 0.0 | 0.00 | 0.00 | 0.00 | 61 | 1011.8 |
| 20260902005400 | 84 | 23 | 0.0 | 0.0 | 0.00 | 0.00 | 0.00 | 61 | 1011.8 |
| 20260902005259 | 84 | 23 | 0.0 | 0.0 | 0.00 | 0.00 | 0.00 | 61 | 1011.8 |
| 20260902005200 | 84 | 23 | 0.0 | 0.0 | 0.00 | 0.00 | 0.00 | 61 | 1011.8 |
| 20260902004802 | 84 | 23 | 0.0 | 0.0 | 0.00 | 0.00 | 0.00 | 61 | 1011.9 |
| 20260902004701 | 84 | 23 | 0.0 | 0.0 | 0.00 | 0.00 | 0.00 | 61 | 1011.9 |
| 20260902004459 | 84 | 23 | 0.0 | 0.0 | 0.00 | 0.00 | 0.00 | 62 | 1011.9 |
| 20260902004359 | 84 | 23 | 0.0 | 0.0 | 0.00 | 0.00 | 0.00 | 62 | 1011.9 |
| 20260902004259 | 84 | 23 | 0.0 | 0.0 | 0.00 | 0.00 | 0.00 | 61 | 1011.9 |
| 20260902004201 | 84 | 23 | 0.0 | 0.0 | 0.00 | 0.00 | 0.00 | 61 | 1011.9 |
| 20260902004058 | 84 | 23 | 0.0 | 0.0 | 0.00 | 0.00 | 0.00 | 62 | 1011.9 |
| 20260902004000 | 84 | 23 | 0.0 | 0.0 | 0.00 | 0.00 | 0.00 | 62 | 1011.9 |
| 20260902003858 | 84 | 23 | 0.0 | 1.0 | 0.00 | 0.00 | 0.00 | 62 | 1012.0 |
| 20260902003659 | 84 | 23 | 0.0 | 1.0 | 0.00 | 0.00 | 0.00 | 62 | 1012.1 |
| 20260902003502 | 84 | 23 | 0.0 | 2.0 | 0.00 | 0.00 | 0.00 | 62 | 1012.1 |
| 20260902003400 | 84 | 23 | 0.0 | 2.0 | 0.00 | 0.00 | 0.00 | 62 | 1012.1 |
| 20260902003159 | 84 | 23 | 0.0 | 3.0 | 0.00 | 0.00 | 0.00 | 62 | 1012.1 |
| 20260902003059 | 84 | 23 | 0.0 | 3.0 | 0.00 | 0.00 | 0.00 | 62 | 1012.1 |
| 20260902003003 | 84 | 23 | 1.0 | 3.0 | 0.00 | 0.00 | 0.00 | 62 | 1012.1 |
| 20260902002859 | 84 | 23 | 0.0 | 3.0 | 0.00 | 0.00 | 0.00 | 62 | 1012.1 |
| 20260902002759 | 84 | 23 | 0.0 | 3.0 | 0.00 | 0.00 | 0.00 | 62 | 1012.1 |
| 20260902002559 | 85 | 23 | 0.0 | 3.0 | 0.00 | 0.00 | 0.00 | 62 | 1012.1 |
| 20260902002459 | 85 | 23 | 1.0 | 3.0 | 0.00 | 0.00 | 0.00 | 62 | 1012.1 |
| 20260902002300 | 85 | 23 | 0.0 | 3.0 | 0.00 | 0.00 | 0.00 | 62 | 1012.1 |
| 20260902002159 | 85 | 24 | 0.0 | 5.0 | 0.00 | 0.00 | 0.00 | 62 | 1012.1 |
| 20260902002059 | 85 | 24 | 0.0 | 5.0 | 0.00 | 0.00 | 0.00 | 62 | 1012.1 |
| 20260902001900 | 85 | 24 | 0.0 | 5.0 | 0.00 | 0.00 | 0.00 | 62 | 1012.1 |
| 20260902001659 | 85 | 24 | 0.0 | 5.0 | 0.00 | 0.00 | 0.00 | 62 | 1012.1 |
| 20260902001559 | 85 | 24 | 0.0 | 5.0 | 0.00 | 0.00 | 0.00 | 62 | 1012.1 |
| 20260902001500 | 85 | 24 | 0.0 | 5.0 | 0.00 | 0.00 | 0.00 | 62 | 1012.1 |
| 20260902001400 | 85 | 24 | 2.0 | 5.0 | 0.00 | 0.00 | 0.00 | 62 | 1012.0 |
| 20260902001259 | 85 | 23 | 0.0 | 4.0 | 0.00 | 0.00 | 0.00 | 62 | 1012.1 |
| 20260902001159 | 85 | 23 | 1.0 | 4.0 | 0.00 | 0.00 | 0.00 | 62 | 1012.0 |
| 20260902001059 | 85 | 23 | 1.0 | 3.0 | 0.00 | 0.00 | 0.00 | 62 | 1012.1 |
| 20260902000859 | 85 | 23 | 0.0 | 3.0 | 0.00 | 0.00 | 0.00 | 62 | 1012.1 |
| 20260902000759 | 85 | 23 | 0.0 | 4.0 | 0.00 | 0.00 | 0.00 | 62 | 1012.0 |
| 20260902000659 | 85 | 23 | 0.0 | 5.0 | 0.00 | 0.00 | 0.00 | 62 | 1012.0 |
| 20260902000559 | 85 | 23 | 0.0 | 5.0 | 0.00 | 0.00 | 0.00 | 62 | 1012.0 |
| 20260902000459 | 85 | 23 | 0.0 | 5.0 | 0.00 | 0.00 | 0.00 | 62 | 1012.0 |
| 20260902000359 | 85 | 23 | 0.0 | 5.0 | 0.00 | 0.00 | 0.00 | 62 | 1012.0 |
| 20260902000201 | 85 | 23 | 1.0 | 5.0 | 0.00 | 0.00 | 0.00 | 62 | 1011.9 |
| 20260902000005 | 85 | 23 | 3.0 | 5.0 | 0.00 | 0.00 | 0.00 | 62 | 1011.9 |
| 20260901235859 | 85 | 272 | 5.0 | 5.0 | 0.00 | 0.00 | 0.00 | 62 | 1011.9 |
| 20260901235800 | 85 | 270 | 2.0 | 5.0 | 0.00 | 0.00 | 0.00 | 62 | 1011.9 |
| 20260901235659 | 85 | 269 | 0.0 | 5.0 | 0.00 | 0.00 | 0.00 | 62 | 1011.9 |
| 20260901235559 | 85 | 269 | 0.0 | 5.0 | 0.00 | 0.00 | 0.00 | 62 | 1011.9 |
| 20260901235459 | 85 | 269 | 0.0 | 5.0 | 0.00 | 0.00 | 0.00 | 62 | 1011.9 |
| 20260901235259 | 86 | 262 | 0.0 | 5.0 | 0.00 | 0.00 | 0.00 | 62 | 1011.8 |
| 20260901235201 | 86 | 262 | 0.0 | 5.0 | 0.00 | 0.00 | 0.00 | 62 | 1011.8 |
| 20260901235101 | 86 | 262 | 5.0 | 5.0 | 0.00 | 0.00 | 0.00 | 62 | 1011.8 |
| 20260901235001 | 86 | 9 | 2.0 | 5.0 | 0.00 | 0.00 | 0.00 | 62 | 1011.8 |
| 20260901234859 | 86 | 8 | 1.0 | 3.0 | 0.00 | 0.00 | 0.00 | 62 | 1011.8 |
| 20260901234800 | 86 | 8 | 0.0 | 3.0 | 0.00 | 0.00 | 0.00 | 62 | 1011.8 |
| 20260901234659 | 86 | 8 | 0.0 | 3.0 | 0.00 | 0.00 | 0.00 | 62 | 1011.8 |
| 20260901234600 | 86 | 8 | 0.0 | 3.0 | 0.00 | 0.00 | 0.00 | 62 | 1011.8 |
| 20260901234459 | 86 | 8 | 0.0 | 4.0 | 0.00 | 0.00 | 0.00 | 62 | 1011.8 |
| 20260901234400 | 86 | 8 | 0.0 | 7.0 | 0.00 | 0.00 | 0.00 | 62 | 1011.8 |
| 20260901234259 | 86 | 8 | 2.0 | 7.0 | 0.00 | 0.00 | 0.00 | 62 | 1011.8 |
| 20260901234058 | 86 | 6 | 0.0 | 7.0 | 0.00 | 0.00 | 0.00 | 62 | 1011.7 |
| 20260901234001 | 86 | 6 | 0.0 | 7.0 | 0.00 | 0.00 | 0.00 | 62 | 1011.7 |
| 20260901233859 | 86 | 6 | 0.0 | 7.0 | 0.00 | 0.00 | 0.00 | 62 | 1011.7 |
| 20260901233759 | 86 | 6 | 0.0 | 7.0 | 0.00 | 0.00 | 0.00 | 62 | 1011.7 |
| 20260901233559 | 86 | 53 | 0.0 | 5.0 | 0.00 | 0.00 | 0.00 | 62 | 1011.7 |
| 20260901233459 | 86 | 53 | 2.0 | 5.0 | 0.00 | 0.00 | 0.00 | 62 | 1011.7 |
| 20260901233359 | 86 | 17 | 0.0 | 5.0 | 0.00 | 0.00 | 0.00 | 62 | 1011.6 |
| 20260901233259 | 86 | 17 | 0.0 | 6.0 | 0.00 | 0.00 | 0.00 | 62 | 1011.7 |
| 20260901233159 | 86 | 17 | 0.0 | 9.0 | 0.00 | 0.00 | 0.00 | 62 | 1011.7 |
| 20260901233058 | 86 | 17 | 1.0 | 9.0 | 0.00 | 0.00 | 0.00 | 62 | 1011.7 |
| 20260901233001 | 86 | 17 | 0.0 | 9.0 | 0.00 | 0.00 | 0.00 | 62 | 1011.8 |
| 20260901232900 | 86 | 20 | 0.0 | 9.0 | 0.00 | 0.00 | 0.00 | 62 | 1011.8 |
| 20260901232802 | 86 | 20 | 1.0 | 9.0 | 0.00 | 0.00 | 0.00 | 62 | 1011.8 |
| 20260901232659 | 86 | 20 | 2.0 | 9.0 | 0.00 | 0.00 | 0.00 | 62 | 1011.8 |
| 20260901232559 | 86 | 20 | 0.0 | 9.0 | 0.00 | 0.00 | 0.00 | 62 | 1011.8 |
| 20260901232459 | 86 | 28 | 6.0 | 10.0 | 0.00 | 0.00 | 0.00 | 62 | 1011.9 |
| 20260901232401 | 86 | 234 | 1.0 | 10.0 | 0.00 | 0.00 | 0.00 | 63 | 1011.9 |
| 20260901232258 | 86 | 4 | 2.0 | 10.0 | 0.00 | 0.00 | 0.00 | 63 | 1011.8 |
| 20260901232059 | 86 | 272 | 0.0 | 10.0 | 0.00 | 0.00 | 0.00 | 63 | 1011.9 |
| 20260901232001 | 87 | 274 | 1.0 | 10.0 | 0.00 | 0.00 | 0.00 | 63 | 1011.9 |
| 20260901231858 | 87 | 8 | 1.0 | 10.0 | 0.00 | 0.00 | 0.00 | 63 | 1011.9 |
| 20260901231700 | 87 | 2 | 7.0 | 10.0 | 0.00 | 0.00 | 0.00 | 63 | 1011.9 |
| 20260901231459 | 87 | 21 | 2.0 | 10.0 | 0.00 | 0.00 | 0.00 | 63 | 1012.0 |
| 20260901231359 | 87 | 25 | 5.0 | 10.0 | 0.00 | 0.00 | 0.00 | 64 | 1012.0 |
| 20260901231259 | 87 | 2 | 9.0 | 10.0 | 0.00 | 0.00 | 0.00 | 64 | 1011.9 |
| 20260901231201 | 87 | 11 | 2.0 | 10.0 | 0.00 | 0.00 | 0.00 | 64 | 1012.0 |
| 20260901231000 | 88 | 25 | 8.0 | 11.0 | 0.00 | 0.00 | 0.00 | 64 | 1012.1 |
| 20260901230900 | 88 | 21 | 4.0 | 11.0 | 0.00 | 0.00 | 0.00 | 64 | 1012.0 |
| 20260901230659 | 88 | 19 | 3.0 | 11.0 | 0.00 | 0.00 | 0.00 | 64 | 1012.1 |
| 20260901230559 | 88 | 15 | 1.0 | 11.0 | 0.00 | 0.00 | 0.00 | 63 | 1012.1 |
| 20260901230459 | 88 | 18 | 3.0 | 11.0 | 0.00 | 0.00 | 0.00 | 63 | 1012.1 |
| 20260901230401 | 88 | 35 | 4.0 | 10.0 | 0.00 | 0.00 | 0.00 | 63 | 1012.1 |
| 20260901230258 | 88 | 360 | 0.0 | 10.0 | 0.00 | 0.00 | 0.00 | 63 | 1012.0 |
| 20260901230159 | 89 | 360 | 5.0 | 10.0 | 0.00 | 0.00 | 0.00 | 63 | 1012.0 |
| 20260901230100 | 89 | 10 | 7.0 | 8.0 | 0.00 | 0.00 | 0.00 | 63 | 1012.0 |
| 20260901230000 | 89 | 356 | 5.0 | 6.0 | 0.00 | 0.00 | 0.00 | 62 | 1012.0 |
| 20260901225858 | 89 | 13 | 2.0 | 6.0 | 0.00 | 0.00 | 0.00 | 62 | 1012.0 |
| 20260901225800 | 89 | 19 | 2.0 | 8.0 | 0.00 | 0.00 | 0.00 | 62 | 1012.0 |
| 20260901225700 | 89 | 321 | 2.0 | 8.0 | 0.00 | 0.00 | 0.00 | 62 | 1012.0 |
| 20260901225602 | 89 | 6 | 1.0 | 8.0 | 0.00 | 0.00 | 0.00 | 62 | 1012.0 |
| 20260901225459 | 89 | 356 | 0.0 | 8.0 | 0.00 | 0.00 | 0.00 | 62 | 1012.0 |
| 20260901225359 | 89 | 356 | 1.0 | 8.0 | 0.00 | 0.00 | 0.00 | 62 | 1011.9 |
| 20260901225258 | 89 | 354 | 1.0 | 8.0 | 0.00 | 0.00 | 0.00 | 62 | 1012.0 |
| 20260901225202 | 89 | 354 | 0.0 | 8.0 | 0.00 | 0.00 | 0.00 | 62 | 1012.0 |
| 20260901225059 | 89 | 354 | 1.0 | 8.0 | 0.00 | 0.00 | 0.00 | 62 | 1012.0 |
| 20260901225000 | 89 | 355 | 8.0 | 8.0 | 0.00 | 0.00 | 0.00 | 62 | 1012.0 |
| 20260901224901 | 89 | 327 | 0.0 | 8.0 | 0.00 | 0.00 | 0.00 | 62 | 1012.0 |
| 20260901224801 | 89 | 327 | 1.0 | 8.0 | 0.00 | 0.00 | 0.00 | 62 | 1012.0 |
| 20260901224658 | 89 | 326 | 0.0 | 8.0 | 0.00 | 0.00 | 0.00 | 62 | 1012.0 |
| 20260901224559 | 89 | 326 | 0.0 | 8.0 | 0.00 | 0.00 | 0.00 | 62 | 1012.1 |
| 20260901224401 | 89 | 359 | 0.0 | 4.0 | 0.00 | 0.00 | 0.00 | 62 | 1012.1 |
| 20260901224258 | 89 | 359 | 0.0 | 4.0 | 0.00 | 0.00 | 0.00 | 62 | 1012.1 |
| 20260901224159 | 89 | 359 | 0.0 | 4.0 | 0.00 | 0.00 | 0.00 | 62 | 1012.1 |
| 20260901224101 | 89 | 359 | 0.0 | 4.0 | 0.00 | 0.00 | 0.00 | 62 | 1012.0 |
| 20260901224003 | 89 | 359 | 0.0 | 4.0 | 0.00 | 0.00 | 0.00 | 62 | 1012.0 |
| 20260901223759 | 89 | 359 | 0.0 | 4.0 | 0.00 | 0.00 | 0.00 | 62 | 1012.1 |
| 20260901223701 | 89 | 359 | 3.0 | 4.0 | 0.00 | 0.00 | 0.00 | 63 | 1012.1 |
| 20260901223601 | 89 | 358 | 0.0 | 5.0 | 0.00 | 0.00 | 0.00 | 62 | 1012.1 |
| 20260901223458 | 89 | 358 | 0.0 | 5.0 | 0.00 | 0.00 | 0.00 | 63 | 1012.1 |
| 20260901223358 | 89 | 358 | 2.0 | 5.0 | 0.00 | 0.00 | 0.00 | 63 | 1012.1 |
| 20260901223300 | 89 | 358 | 3.0 | 5.0 | 0.00 | 0.00 | 0.00 | 63 | 1012.1 |
| 20260901223201 | 89 | 358 | 1.0 | 5.0 | 0.00 | 0.00 | 0.00 | 63 | 1012.1 |
| 20260901223000 | 89 | 358 | 1.0 | 5.0 | 0.00 | 0.00 | 0.00 | 63 | 1012.1 |
| 20260901222859 | 89 | 358 | 0.0 | 5.0 | 0.00 | 0.00 | 0.00 | 63 | 1012.1 |
| 20260901222801 | 88 | 358 | 2.0 | 5.0 | 0.00 | 0.00 | 0.00 | 63 | 1012.1 |
| 20260901222700 | 88 | 354 | 0.0 | 4.0 | 0.00 | 0.00 | 0.00 | 63 | 1012.1 |
| 20260901222559 | 88 | 354 | 1.0 | 4.0 | 0.00 | 0.00 | 0.00 | 63 | 1012.0 |
| 20260901222459 | 88 | 354 | 0.0 | 4.0 | 0.00 | 0.00 | 0.00 | 63 | 1012.1 |
| 20260901222401 | 88 | 353 | 0.0 | 3.0 | 0.00 | 0.00 | 0.00 | 63 | 1012.0 |
| 20260901222200 | 88 | 353 | 1.0 | 1.0 | 0.00 | 0.00 | 0.00 | 63 | 1012.0 |
| 20260901222002 | 88 | 353 | 0.0 | 0.0 | 0.00 | 0.00 | 0.00 | 63 | 1012.0 |
| 20260901221858 | 88 | 353 | 0.0 | 0.0 | 0.00 | 0.00 | 0.00 | 63 | 1012.0 |
| 20260901221759 | 88 | 353 | 0.0 | 0.0 | 0.00 | 0.00 | 0.00 | 63 | 1012.0 |
| 20260901221659 | 88 | 354 | 0.0 | 0.0 | 0.00 | 0.00 | 0.00 | 63 | 1011.9 |
| 20260901221359 | 88 | 353 | 0.0 | 0.0 | 0.00 | 0.00 | 0.00 | 63 | 1012.0 |
| 20260901221259 | 88 | 353 | 0.0 | 0.0 | 0.00 | 0.00 | 0.00 | 63 | 1012.0 |
| 20260901221201 | 88 | 353 | 0.0 | 0.0 | 0.00 | 0.00 | 0.00 | 63 | 1012.0 |
| 20260901221101 | 88 | 353 | 0.0 | 0.0 | 0.00 | 0.00 | 0.00 | 63 | 1012.0 |
| 20260901220858 | 88 | 353 | 0.0 | 0.0 | 0.00 | 0.00 | 0.00 | 63 | 1012.0 |
| 20260901220800 | 88 | 353 | 0.0 | 0.0 | 0.00 | 0.00 | 0.00 | 63 | 1012.0 |
| 20260901220658 | 88 | 353 | 0.0 | 0.0 | 0.00 | 0.00 | 0.00 | 63 | 1012.1 |
| 20260901220559 | 88 | 353 | 0.0 | 0.0 | 0.00 | 0.00 | 0.00 | 63 | 1012.1 |
| 20260901220401 | 88 | 353 | 0.0 | 0.0 | 0.00 | 0.00 | 0.00 | 63 | 1012.1 |
| 20260901220300 | 88 | 353 | 0.0 | 0.0 | 0.00 | 0.00 | 0.00 | 63 | 1012.1 |
| 20260901220159 | 88 | 353 | 0.0 | 0.0 | 0.00 | 0.00 | 0.00 | 63 | 1012.1 |
| 20260901220059 | 87 | 353 | 0.0 | 0.0 | 0.00 | 0.00 | 0.00 | 63 | 1012.2 |
| 20260901220010 | 87 | 353 | 0.0 | 0.0 | 0.00 | 0.00 | 0.00 | 63 | 1012.2 |
| 20260901215900 | 87 | 353 | 0.0 | 0.0 | 0.00 | 0.00 | 0.00 | 63 | 1012.2 |
| 20260901215501 | 87 | 353 | 0.0 | 0.0 | 0.00 | 0.00 | 0.00 | 63 | 1012.3 |
| 20260901215401 | 87 | 353 | 0.0 | 0.0 | 0.00 | 0.00 | 0.00 | 63 | 1012.4 |
| 20260901215258 | 87 | 353 | 0.0 | 0.0 | 0.00 | 0.00 | 0.00 | 63 | 1012.3 |
| 20260901215159 | 87 | 353 | 0.0 | 0.0 | 0.00 | 0.00 | 0.00 | 63 | 1012.4 |
| 20260901215101 | 87 | 353 | 0.0 | 0.0 | 0.00 | 0.00 | 0.00 | 63 | 1012.4 |
| 20260901215002 | 87 | 353 | 0.0 | 0.0 | 0.00 | 0.00 | 0.00 | 63 | 1012.4 |
| 20260901214859 | 87 | 353 | 0.0 | 0.0 | 0.00 | 0.00 | 0.00 | 63 | 1012.4 |
| 20260901214700 | 88 | 353 | 0.0 | 1.0 | 0.00 | 0.00 | 0.00 | 63 | 1012.5 |
| 20260901214601 | 88 | 353 | 0.0 | 1.0 | 0.00 | 0.00 | 0.00 | 63 | 1012.5 |
| 20260901214459 | 88 | 353 | 0.0 | 1.0 | 0.00 | 0.00 | 0.00 | 63 | 1012.5 |
| 20260901214359 | 88 | 353 | 0.0 | 1.0 | 0.00 | 0.00 | 0.00 | 63 | 1012.5 |
| 20260901214200 | 88 | 353 | 0.0 | 1.0 | 0.00 | 0.00 | 0.00 | 63 | 1012.6 |
| 20260901214000 | 88 | 353 | 0.0 | 1.0 | 0.00 | 0.00 | 0.00 | 63 | 1012.6 |
| 20260901213658 | 88 | 353 | 0.0 | 0.0 | 0.00 | 0.00 | 0.00 | 63 | 1012.7 |
| 20260901213601 | 88 | 353 | 0.0 | 0.0 | 0.00 | 0.00 | 0.00 | 63 | 1012.7 |
| 20260901213501 | 88 | 353 | 0.0 | 0.0 | 0.00 | 0.00 | 0.00 | 63 | 1012.7 |
| 20260901213259 | 88 | 353 | 0.0 | 0.0 | 0.00 | 0.00 | 0.00 | 63 | 1012.7 |
| 20260901213159 | 88 | 353 | 0.0 | 0.0 | 0.00 | 0.00 | 0.00 | 63 | 1012.6 |
| 20260901213000 | 87 | 353 | 0.0 | 0.0 | 0.00 | 0.00 | 0.00 | 63 | 1012.7 |
| 20260901212858 | 88 | 353 | 0.0 | 0.0 | 0.00 | 0.00 | 0.00 | 63 | 1012.6 |
| 20260901212759 | 88 | 353 | 0.0 | 0.0 | 0.00 | 0.00 | 0.00 | 63 | 1012.7 |
| 20260901212700 | 88 | 353 | 0.0 | 0.0 | 0.00 | 0.00 | 0.00 | 63 | 1012.7 |
| 20260901212600 | 88 | 353 | 0.0 | 0.0 | 0.00 | 0.00 | 0.00 | 63 | 1012.7 |
| 20260901212458 | 88 | 353 | 0.0 | 0.0 | 0.00 | 0.00 | 0.00 | 63 | 1012.7 |
| 20260901212400 | 88 | 353 | 0.0 | 0.0 | 0.00 | 0.00 | 0.00 | 63 | 1012.7 |
| 20260901212300 | 88 | 353 | 0.0 | 0.0 | 0.00 | 0.00 | 0.00 | 63 | 1012.7 |
| 20260901212058 | 88 | 353 | 0.0 | 0.0 | 0.00 | 0.00 | 0.00 | 63 | 1012.6 |
| 20260901212000 | 88 | 353 | 0.0 | 0.0 | 0.00 | 0.00 | 0.00 | 63 | 1012.7 |
| 20260901211859 | 88 | 353 | 0.0 | 0.0 | 0.00 | 0.00 | 0.00 | 63 | 1012.6 |
| 20260901211801 | 88 | 353 | 0.0 | 0.0 | 0.00 | 0.00 | 0.00 | 63 | 1012.6 |
| 20260901211700 | 87 | 353 | 0.0 | 0.0 | 0.00 | 0.00 | 0.00 | 63 | 1012.6 |
| 20260901211559 | 87 | 353 | 0.0 | 0.0 | 0.00 | 0.00 | 0.00 | 63 | 1012.6 |
| 20260901211459 | 87 | 353 | 0.0 | 0.0 | 0.00 | 0.00 | 0.00 | 63 | 1012.6 |
| 20260901211159 | 87 | 353 | 0.0 | 0.0 | 0.00 | 0.00 | 0.00 | 63 | 1012.6 |
| 20260901211058 | 87 | 353 | 0.0 | 0.0 | 0.00 | 0.00 | 0.00 | 63 | 1012.5 |
| 20260901211002 | 87 | 353 | 0.0 | 0.0 | 0.00 | 0.00 | 0.00 | 63 | 1012.5 |
| 20260901210900 | 87 | 353 | 0.0 | 0.0 | 0.00 | 0.00 | 0.00 | 63 | 1012.5 |
| 20260901210801 | 87 | 353 | 0.0 | 0.0 | 0.00 | 0.00 | 0.00 | 63 | 1012.5 |
| 20260901210658 | 87 | 353 | 0.0 | 0.0 | 0.00 | 0.00 | 0.00 | 63 | 1012.5 |
| 20260901210459 | 87 | 353 | 0.0 | 0.0 | 0.00 | 0.00 | 0.00 | 63 | 1012.5 |
| 20260901210357 | 87 | 353 | 0.0 | 0.0 | 0.00 | 0.00 | 0.00 | 63 | 1012.5 |
| 20260901210254 | 87 | 353 | 0.0 | 0.0 | 0.00 | 0.00 | 0.00 | 63 | 1012.5 |
| 20260901210157 | 87 | 353 | 0.0 | 0.0 | 0.00 | 0.00 | 0.00 | 63 | 1012.4 |
| 20260901210056 | 87 | 353 | 0.0 | 1.0 | 0.00 | 0.00 | 0.00 | 63 | 1012.5 |
| 20260901210002 | 87 | 353 | 0.0 | 1.0 | 0.00 | 0.00 | 0.00 | 63 | 1012.5 |
| 20260901205755 | 87 | 353 | 0.0 | 1.0 | 0.00 | 0.00 | 0.00 | 63 | 1012.5 |
| 20260901205656 | 87 | 353 | 0.0 | 1.0 | 0.00 | 0.00 | 0.00 | 63 | 1012.5 |
| 20260901205557 | 87 | 353 | 0.0 | 1.0 | 0.00 | 0.00 | 0.00 | 63 | 1012.5 |
| 20260901205455 | 87 | 353 | 0.0 | 1.0 | 0.00 | 0.00 | 0.00 | 63 | 1012.4 |
| 20260901205355 | 87 | 353 | 0.0 | 1.0 | 0.00 | 0.00 | 0.00 | 63 | 1012.4 |
| 20260901205256 | 87 | 353 | 0.0 | 1.0 | 0.00 | 0.00 | 0.00 | 63 | 1012.4 |
| 20260901205157 | 87 | 353 | 0.0 | 1.0 | 0.00 | 0.00 | 0.00 | 63 | 1012.4 |
| 20260901205054 | 87 | 353 | 0.0 | 1.0 | 0.00 | 0.00 | 0.00 | 63 | 1012.4 |
| 20260901204957 | 87 | 353 | 0.0 | 1.0 | 0.00 | 0.00 | 0.00 | 63 | 1012.4 |
| 20260901204856 | 87 | 353 | 0.0 | 1.0 | 0.00 | 0.00 | 0.00 | 63 | 1012.3 |
| 20260901204757 | 87 | 353 | 0.0 | 1.0 | 0.00 | 0.00 | 0.00 | 63 | 1012.4 |
| 20260901204656 | 87 | 353 | 0.0 | 1.0 | 0.00 | 0.00 | 0.00 | 63 | 1012.3 |
| 20260901204555 | 87 | 353 | 0.0 | 1.0 | 0.00 | 0.00 | 0.00 | 63 | 1012.4 |
| 20260901204455 | 87 | 353 | 0.0 | 1.0 | 0.00 | 0.00 | 0.00 | 63 | 1012.4 |
| 20260901204257 | 87 | 353 | 0.0 | 0.0 | 0.00 | 0.00 | 0.00 | 63 | 1012.4 |
| 20260901204155 | 87 | 353 | 0.0 | 0.0 | 0.00 | 0.00 | 0.00 | 63 | 1012.4 |
| 20260901204054 | 87 | 353 | 0.0 | 0.0 | 0.00 | 0.00 | 0.00 | 63 | 1012.4 |
| 20260901203856 | 87 | 353 | 0.0 | 0.0 | 0.00 | 0.00 | 0.00 | 63 | 1012.4 |
| 20260901203755 | 87 | 353 | 0.0 | 0.0 | 0.00 | 0.00 | 0.00 | 63 | 1012.5 |
| 20260901203654 | 87 | 353 | 0.0 | 0.0 | 0.00 | 0.00 | 0.00 | 63 | 1012.4 |
| 20260901203557 | 87 | 353 | 0.0 | 0.0 | 0.00 | 0.00 | 0.00 | 63 | 1012.5 |
| 20260901203457 | 87 | 353 | 0.0 | 1.0 | 0.00 | 0.00 | 0.00 | 63 | 1012.5 |
| 20260901203358 | 87 | 353 | 0.0 | 3.0 | 0.00 | 0.00 | 0.00 | 63 | 1012.5 |
| 20260901203254 | 87 | 353 | 0.0 | 3.0 | 0.00 | 0.00 | 0.00 | 63 | 1012.5 |
| 20260901203157 | 87 | 353 | 0.0 | 3.0 | 0.00 | 0.00 | 0.00 | 63 | 1012.5 |
| 20260901203054 | 87 | 353 | 0.0 | 3.0 | 0.00 | 0.00 | 0.00 | 63 | 1012.5 |
| 20260901202956 | 87 | 353 | 0.0 | 3.0 | 0.00 | 0.00 | 0.00 | 63 | 1012.6 |
| 20260901202854 | 87 | 353 | 0.0 | 3.0 | 0.00 | 0.00 | 0.00 | 63 | 1012.6 |
| 20260901202757 | 87 | 353 | 0.0 | 3.0 | 0.00 | 0.00 | 0.00 | 63 | 1012.6 |
| 20260901202657 | 87 | 353 | 0.0 | 3.0 | 0.00 | 0.00 | 0.00 | 63 | 1012.6 |
| 20260901202554 | 87 | 353 | 1.0 | 3.0 | 0.00 | 0.00 | 0.00 | 63 | 1012.6 |
| 20260901202454 | 87 | 353 | 2.0 | 3.0 | 0.00 | 0.00 | 0.00 | 63 | 1012.6 |
| 20260901202357 | 87 | 353 | 0.0 | 3.0 | 0.00 | 0.00 | 0.00 | 63 | 1012.6 |
| 20260901202256 | 87 | 353 | 0.0 | 4.0 | 0.00 | 0.00 | 0.00 | 63 | 1012.7 |
| 20260901202155 | 87 | 353 | 0.0 | 4.0 | 0.00 | 0.00 | 0.00 | 63 | 1012.7 |
| 20260901201957 | 87 | 353 | 0.0 | 4.0 | 0.00 | 0.00 | 0.00 | 63 | 1012.8 |
| 20260901201856 | 87 | 353 | 0.0 | 4.0 | 0.00 | 0.00 | 0.00 | 63 | 1012.8 |
| 20260901201756 | 87 | 353 | 0.0 | 4.0 | 0.00 | 0.00 | 0.00 | 63 | 1012.9 |
| 20260901201654 | 87 | 353 | 0.0 | 4.0 | 0.00 | 0.00 | 0.00 | 63 | 1012.9 |
| 20260901201557 | 87 | 353 | 2.0 | 4.0 | 0.00 | 0.00 | 0.00 | 63 | 1013.0 |
| 20260901201457 | 87 | 353 | 0.0 | 4.0 | 0.00 | 0.00 | 0.00 | 63 | 1013.0 |
| 20260901201355 | 88 | 353 | 1.0 | 2.0 | 0.00 | 0.00 | 0.00 | 63 | 1012.9 |
| 20260901201157 | 88 | 353 | 0.0 | 3.0 | 0.00 | 0.00 | 0.00 | 63 | 1013.1 |
| 20260901201056 | 88 | 353 | 0.0 | 3.0 | 0.00 | 0.00 | 0.00 | 63 | 1013.1 |
| 20260901200957 | 88 | 353 | 0.0 | 3.0 | 0.00 | 0.00 | 0.00 | 63 | 1013.1 |
| 20260901200854 | 88 | 353 | 1.0 | 3.0 | 0.00 | 0.00 | 0.00 | 63 | 1013.2 |
| 20260901200755 | 88 | 353 | 1.0 | 3.0 | 0.00 | 0.00 | 0.00 | 63 | 1013.2 |
| 20260901200656 | 88 | 353 | 1.0 | 3.0 | 0.00 | 0.00 | 0.00 | 63 | 1013.2 |
| 20260901200557 | 88 | 353 | 0.0 | 3.0 | 0.00 | 0.00 | 0.00 | 63 | 1013.2 |
| 20260901200454 | 88 | 353 | 2.0 | 3.0 | 0.00 | 0.00 | 0.00 | 63 | 1013.3 |
| 20260901200255 | 88 | 349 | 1.0 | 3.0 | 0.00 | 0.00 | 0.00 | 63 | 1013.3 |
| 20260901200157 | 88 | 349 | 0.0 | 3.0 | 0.00 | 0.00 | 0.00 | 63 | 1013.3 |
| 20260901200054 | 88 | 349 | 0.0 | 5.0 | 0.00 | 0.00 | 0.00 | 63 | 1013.4 |
| 20260901195957 | 88 | 349 | 0.0 | 5.0 | 0.00 | 0.00 | 0.00 | 63 | 1013.4 |
| 20260901195857 | 88 | 349 | 0.0 | 5.0 | 0.00 | 0.00 | 0.00 | 63 | 1013.4 |
| 20260901195657 | 88 | 349 | 0.0 | 5.0 | 0.00 | 0.00 | 0.00 | 63 | 1013.5 |
| 20260901195556 | 88 | 349 | 1.0 | 5.0 | 0.00 | 0.00 | 0.00 | 63 | 1013.5 |
| 20260901195456 | 88 | 349 | 0.0 | 5.0 | 0.00 | 0.00 | 0.00 | 63 | 1013.5 |
| 20260901195358 | 88 | 349 | 3.0 | 5.0 | 0.00 | 0.00 | 0.00 | 63 | 1013.6 |
| 20260901195257 | 88 | 349 | 1.0 | 5.0 | 0.00 | 0.00 | 0.00 | 63 | 1013.6 |
| 20260901195157 | 88 | 349 | 0.0 | 5.0 | 0.00 | 0.00 | 0.00 | 63 | 1013.6 |
| 20260901195058 | 88 | 349 | 2.0 | 5.0 | 0.00 | 0.00 | 0.00 | 63 | 1013.7 |
| 20260901194857 | 88 | 349 | 0.0 | 5.0 | 0.00 | 0.00 | 0.00 | 63 | 1013.7 |
| 20260901194757 | 88 | 349 | 2.0 | 5.0 | 0.00 | 0.00 | 0.00 | 63 | 1013.7 |
| 20260901194657 | 88 | 348 | 2.0 | 3.0 | 0.00 | 0.00 | 0.00 | 63 | 1013.7 |
| 20260901194558 | 88 | 346 | 1.0 | 3.0 | 0.00 | 0.00 | 0.00 | 63 | 1013.7 |
| 20260901194456 | 88 | 346 | 0.0 | 3.0 | 0.00 | 0.00 | 0.00 | 63 | 1013.7 |
| 20260901194356 | 88 | 346 | 0.0 | 3.0 | 0.00 | 0.00 | 0.00 | 63 | 1013.8 |
| 20260901194257 | 88 | 346 | 0.0 | 3.0 | 0.00 | 0.00 | 0.00 | 63 | 1013.7 |
| 20260901194158 | 88 | 346 | 0.0 | 3.0 | 0.00 | 0.00 | 0.00 | 63 | 1013.8 |
| 20260901194057 | 88 | 346 | 0.0 | 3.0 | 0.00 | 0.00 | 0.00 | 63 | 1013.8 |
| 20260901193959 | 88 | 346 | 1.0 | 2.0 | 0.00 | 0.00 | 0.00 | 63 | 1013.7 |
| 20260901193855 | 89 | 346 | 1.0 | 3.0 | 0.00 | 0.00 | 0.00 | 63 | 1013.8 |
| 20260901193756 | 89 | 346 | 0.0 | 3.0 | 0.00 | 0.00 | 0.00 | 63 | 1013.8 |
| 20260901193657 | 89 | 346 | 0.0 | 3.0 | 0.00 | 0.00 | 0.00 | 63 | 1013.8 |
| 20260901193556 | 89 | 346 | 0.0 | 3.0 | 0.00 | 0.00 | 0.00 | 63 | 1013.8 |
| 20260901193458 | 89 | 346 | 0.0 | 3.0 | 0.00 | 0.00 | 0.00 | 63 | 1013.8 |
| 20260901193355 | 89 | 346 | 1.0 | 3.0 | 0.00 | 0.00 | 0.00 | 63 | 1013.8 |
| 20260901193158 | 89 | 345 | 1.0 | 3.0 | 0.00 | 0.00 | 0.00 | 63 | 1013.7 |
| 20260901193055 | 89 | 344 | 3.0 | 3.0 | 0.00 | 0.00 | 0.00 | 63 | 1013.7 |
| 20260901192959 | 89 | 344 | 0.0 | 3.0 | 0.00 | 0.00 | 0.00 | 63 | 1013.8 |
| 20260901192857 | 89 | 344 | 1.0 | 3.0 | 0.00 | 0.00 | 0.00 | 63 | 1013.7 |
| 20260901192757 | 89 | 344 | 0.0 | 3.0 | 0.00 | 0.00 | 0.00 | 63 | 1013.7 |
| 20260901192655 | 89 | 344 | 0.0 | 6.0 | 0.00 | 0.00 | 0.00 | 63 | 1013.7 |
| 20260901192358 | 89 | 344 | 0.0 | 6.0 | 0.00 | 0.00 | 0.00 | 63 | 1013.7 |
| 20260901192157 | 89 | 344 | 1.0 | 6.0 | 0.00 | 0.00 | 0.00 | 62 | 1013.7 |
| 20260901192055 | 89 | 344 | 0.0 | 6.0 | 0.00 | 0.00 | 0.00 | 62 | 1013.7 |
| 20260901191959 | 89 | 344 | 1.0 | 6.0 | 0.00 | 0.00 | 0.00 | 62 | 1013.7 |
| 20260901191856 | 89 | 344 | 0.0 | 6.0 | 0.00 | 0.00 | 0.00 | 62 | 1013.7 |
| 20260901191757 | 89 | 343 | 0.0 | 5.0 | 0.00 | 0.00 | 0.00 | 62 | 1013.7 |
| 20260901191657 | 89 | 343 | 3.0 | 5.0 | 0.00 | 0.00 | 0.00 | 62 | 1013.7 |